GEFSGL_prec_meanprecacc_168.txt.gz
Total_Precipitation_Accumulation
1.06 1.07 1.07 1.04 0.94 0.92 0.97 0.97 0.96 0.96 1.01 1.00 0.91 0.85 0.91 0.91 0.88 0.94 1.00 1.06 1.12 1.27 1.42 1.54 1.69 1.94 2.22 2.24 2.18 2.06 1.94 1.78 1.55 1.41 1.20 1.12 1.43 1.52 1.42 1.27 1.25 1.24 1.03
1.01 1.03 1.01 0.92 0.86 0.82 0.80 0.77 0.68 0.66 0.69 0.78 0.87 0.82 0.80 0.83 0.85 0.92 0.94 0.98 0.99 1.07 1.16 1.28 1.45 1.74 2.08 2.29 2.37 2.28 2.12 1.96 1.81 1.66 1.33 1.09 1.21 1.55 1.68 1.61 1.37 1.21 1.10
1.10 0.94 0.84 0.80 0.76 0.74 0.65 0.61 0.57 0.51 0.52 0.57 0.66 0.67 0.76 0.83 0.85 0.88 0.90 0.93 0.96 1.03 1.16 1.21 1.27 1.47 1.66 1.87 2.06 2.18 2.17 2.14 2.10 1.86 1.56 1.29 1.23 1.37 1.62 1.64 1.56 1.51 1.29
1.20 1.09 0.94 0.83 0.75 0.70 0.62 0.58 0.54 0.51 0.54 0.61 0.73 0.77 0.73 0.71 0.75 0.86 0.90 0.86 0.85 0.88 0.96 1.05 1.15 1.20 1.35 1.50 1.60 1.79 2.00 2.23 2.30 2.15 1.89 1.57 1.45 1.34 1.45 1.60 1.67 1.62 1.53
1.16 1.17 1.02 0.94 0.86 0.72 0.65 0.64 0.61 0.64 0.61 0.63 0.73 0.83 0.90 0.84 0.82 0.91 0.87 0.85 0.85 0.83 0.88 0.88 0.95 0.97 1.03 1.22 1.26 1.48 1.80 2.06 2.17 2.24 2.12 1.81 1.55 1.38 1.18 1.28 1.54 1.75 1.75
0.81 0.90 0.87 0.78 0.67 0.63 0.62 0.60 0.56 0.55 0.51 0.50 0.54 0.61 0.70 0.74 0.94 0.90 0.74 0.71 0.76 0.82 0.87 0.87 0.89 0.83 0.82 0.88 1.01 1.14 1.44 1.65 1.78 1.85 1.88 1.72 1.51 1.38 1.33 1.30 1.37 1.51 1.56
0.51 0.61 0.61 0.56 0.49 0.45 0.49 0.49 0.46 0.41 0.42 0.39 0.39 0.39 0.45 0.60 0.68 0.53 0.51 0.58 0.72 0.83 0.90 0.93 0.89 0.84 0.88 0.89 0.91 0.92 0.99 1.17 1.38 1.58 1.60 1.50 1.56 1.47 1.39 1.29 1.31 1.33 1.31
0.26 0.31 0.32 0.33 0.32 0.33 0.34 0.34 0.34 0.33 0.31 0.30 0.38 0.45 0.46 0.48 0.54 0.45 0.44 0.55 0.74 0.87 0.88 0.84 0.90 0.91 0.94 1.00 0.93 1.00 0.96 0.94 1.02 1.07 1.21 1.41 1.55 1.72 1.69 1.58 1.59 1.53 1.44
0.09 0.11 0.13 0.15 0.19 0.21 0.22 0.24 0.31 0.34 0.35 0.38 0.49 0.56 0.50 0.43 0.47 0.48 0.54 0.69 0.81 0.90 0.86 0.86 0.93 0.97 1.10 1.15 1.06 1.11 1.07 1.03 1.00 1.11 1.20 1.30 1.38 1.50 1.65 1.69 1.65 1.61 1.48
0.02 0.02 0.04 0.04 0.05 0.08 0.12 0.15 0.19 0.25 0.32 0.39 0.41 0.39 0.39 0.46 0.52 0.51 0.64 0.82 0.94 1.04 1.00 0.99 1.17 1.12 1.10 1.05 1.03 1.18 1.14 0.99 0.92 0.96 1.01 1.09 1.12 1.22 1.35 1.39 1.52 1.58 1.50
0.03 0.04 0.04 0.03 0.02 0.03 0.04 0.05 0.08 0.13 0.16 0.19 0.20 0.25 0.32 0.48 0.53 0.57 0.76 0.86 0.92 1.07 1.09 1.05 0.99 1.12 1.06 0.98 0.98 1.03 1.17 1.05 0.98 1.02 1.01 1.02 1.04 1.07 1.11 1.17 1.28 1.41 1.46
0.02 0.04 0.03 0.03 0.02 0.02 0.03 0.03 0.03 0.05 0.08 0.12 0.16 0.21 0.26 0.33 0.41 0.48 0.61 0.74 0.82 0.99 1.07 0.97 0.87 1.10 1.06 0.97 0.89 0.91 1.05 1.12 1.11 1.15 1.14 1.05 0.97 0.94 0.93 0.99 1.08 1.19 1.29
0.02 0.03 0.03 0.03 0.03 0.02 0.03 0.03 0.03 0.04 0.06 0.09 0.14 0.20 0.27 0.31 0.34 0.40 0.47 0.56 0.69 0.87 0.93 0.94 0.95 0.99 0.91 0.87 0.96 0.99 1.01 1.04 1.12 1.17 1.07 0.92 0.86 0.84 0.89 1.00 1.10 1.20 1.28
0.02 0.02 0.02 0.03 0.04 0.03 0.04 0.04 0.04 0.04 0.06 0.10 0.17 0.24 0.28 0.31 0.33 0.40 0.48 0.52 0.62 0.71 0.73 0.77 0.81 0.78 0.78 0.82 0.88 0.98 1.03 1.07 1.09 1.04 0.93 0.80 0.80 0.85 0.87 0.90 1.02 1.15 1.29
0.01 0.01 0.02 0.03 0.03 0.03 0.03 0.03 0.04 0.04 0.07 0.13 0.16 0.20 0.21 0.24 0.28 0.38 0.51 0.58 0.69 0.78 0.80 0.74 0.75 0.75 0.75 0.75 0.80 0.83 0.88 0.88 0.91 0.89 0.87 0.85 0.84 0.85 0.85 0.84 0.91 0.97 0.99
0.01 0.01 0.01 0.02 0.03 0.03 0.05 0.04 0.03 0.03 0.04 0.06 0.07 0.11 0.17 0.20 0.18 0.22 0.32 0.47 0.63 0.84 1.08 1.08 1.07 1.02 0.93 0.82 0.75 0.70 0.68 0.71 0.74 0.80 0.82 0.81 0.80 0.82 0.87 0.89 0.92 0.97 0.95
0.01 0.01 0.01 0.01 0.02 0.03 0.05 0.09 0.11 0.08 0.04 0.03 0.04 0.07 0.14 0.18 0.18 0.22 0.29 0.34 0.46 0.77 1.12 1.14 1.12 0.98 0.84 0.77 0.68 0.57 0.53 0.56 0.64 0.65 0.69 0.72 0.72 0.74 0.80 0.84 0.85 0.90 0.92
0.01 0.01 0.01 0.02 0.03 0.03 0.04 0.10 0.20 0.26 0.21 0.09 0.05 0.06 0.12 0.19 0.24 0.32 0.42 0.53 0.59 0.72 0.84 0.84 0.76 0.69 0.62 0.54 0.51 0.47 0.44 0.49 0.58 0.59 0.61 0.61 0.61 0.65 0.69 0.76 0.80 0.81 0.85
0.01 0.02 0.04 0.07 0.05 0.03 0.05 0.13 0.19 0.12 0.11 0.13 0.12 0.08 0.09 0.12 0.17 0.24 0.36 0.47 0.49 0.52 0.52 0.47 0.41 0.38 0.38 0.36 0.37 0.38 0.38 0.42 0.49 0.57 0.58 0.56 0.54 0.57 0.61 0.65 0.72 0.80 0.82
0.01 0.01 0.03 0.09 0.09 0.05 0.06 0.11 0.10 0.09 0.11 0.13 0.14 0.13 0.12 0.13 0.15 0.18 0.23 0.28 0.29 0.29 0.29 0.29 0.27 0.26 0.28 0.29 0.30 0.32 0.34 0.38 0.43 0.49 0.52 0.55 0.54 0.52 0.54 0.59 0.64 0.67 0.69
0.01 0.01 0.02 0.05 0.08 0.06 0.06 0.08 0.06 0.07 0.10 0.12 0.12 0.12 0.14 0.19 0.20 0.19 0.18 0.18 0.20 0.23 0.25 0.26 0.25 0.26 0.28 0.29 0.32 0.36 0.39 0.42 0.43 0.49 0.51 0.52 0.55 0.56 0.55 0.57 0.61 0.61 0.64
0.01 0.02 0.02 0.05 0.06 0.04 0.04 0.07 0.09 0.08 0.08 0.10 0.11 0.12 0.15 0.20 0.21 0.20 0.18 0.18 0.18 0.20 0.26 0.30 0.31 0.32 0.31 0.33 0.37 0.41 0.42 0.44 0.47 0.50 0.54 0.54 0.54 0.54 0.55 0.57 0.60 0.62 0.62
0.03 0.03 0.04 0.05 0.07 0.05 0.05 0.06 0.10 0.12 0.11 0.12 0.13 0.13 0.14 0.17 0.19 0.23 0.23 0.23 0.26 0.29 0.27 0.28 0.32 0.34 0.33 0.35 0.39 0.44 0.49 0.49 0.50 0.54 0.59 0.58 0.54 0.54 0.57 0.57 0.58 0.61 0.61
0.03 0.03 0.04 0.06 0.07 0.07 0.07 0.08 0.09 0.10 0.13 0.16 0.16 0.16 0.17 0.20 0.22 0.21 0.22 0.28 0.30 0.29 0.28 0.29 0.31 0.35 0.36 0.38 0.40 0.43 0.45 0.49 0.53 0.56 0.60 0.63 0.61 0.57 0.60 0.63 0.63 0.64 0.68
0.05 0.05 0.06 0.08 0.10 0.11 0.11 0.12 0.12 0.13 0.16 0.20 0.18 0.18 0.18 0.19 0.20 0.19 0.20 0.24 0.27 0.26 0.26 0.28 0.30 0.34 0.36 0.38 0.41 0.43 0.48 0.52 0.55 0.56 0.59 0.64 0.65 0.64 0.64 0.69 0.73 0.76 0.79
0.08 0.08 0.10 0.11 0.13 0.15 0.16 0.16 0.16 0.17 0.18 0.18 0.18 0.20 0.21 0.22 0.23 0.22 0.22 0.23 0.25 0.26 0.27 0.28 0.30 0.33 0.34 0.35 0.39 0.46 0.49 0.47 0.49 0.54 0.57 0.65 0.71 0.73 0.73 0.73 0.73 0.77 0.80

GEFSGL_prec_meanprecacc_174.txt.gz
Total_Precipitation_Accumulation
1.09 1.09 1.08 1.05 0.94 0.92 0.97 0.97 0.96 0.96 1.01 1.00 0.91 0.85 0.91 0.91 0.89 0.95 1.01 1.06 1.14 1.28 1.43 1.56 1.71 1.95 2.23 2.25 2.19 2.08 1.95 1.80 1.57 1.41 1.20 1.13 1.44 1.53 1.44 1.31 1.27 1.26 1.04
1.02 1.03 1.02 0.92 0.86 0.82 0.80 0.77 0.69 0.66 0.69 0.78 0.87 0.82 0.80 0.83 0.86 0.92 0.95 0.98 1.00 1.08 1.18 1.31 1.49 1.77 2.10 2.31 2.39 2.28 2.13 1.97 1.83 1.67 1.33 1.09 1.21 1.55 1.69 1.61 1.38 1.22 1.11
1.10 0.95 0.84 0.80 0.76 0.74 0.65 0.61 0.57 0.52 0.52 0.57 0.66 0.67 0.76 0.83 0.86 0.88 0.90 0.94 0.96 1.04 1.18 1.24 1.29 1.48 1.67 1.88 2.06 2.19 2.18 2.15 2.11 1.88 1.57 1.30 1.24 1.37 1.63 1.64 1.56 1.51 1.29
1.20 1.09 0.94 0.83 0.75 0.70 0.62 0.58 0.54 0.51 0.54 0.61 0.73 0.78 0.73 0.71 0.76 0.86 0.90 0.86 0.85 0.88 0.97 1.06 1.16 1.20 1.36 1.50 1.61 1.80 2.01 2.24 2.31 2.17 1.90 1.58 1.45 1.35 1.45 1.61 1.68 1.62 1.53
1.17 1.17 1.02 0.94 0.86 0.72 0.66 0.64 0.61 0.64 0.61 0.63 0.73 0.83 0.90 0.85 0.82 0.91 0.88 0.86 0.85 0.84 0.89 0.89 0.95 0.98 1.04 1.22 1.26 1.48 1.81 2.06 2.17 2.24 2.13 1.82 1.56 1.38 1.18 1.28 1.54 1.76 1.75
0.81 0.90 0.87 0.78 0.67 0.63 0.62 0.60 0.56 0.55 0.51 0.50 0.54 0.61 0.70 0.74 0.94 0.90 0.74 0.71 0.77 0.83 0.88 0.87 0.89 0.83 0.82 0.88 1.01 1.14 1.44 1.65 1.78 1.85 1.88 1.73 1.52 1.38 1.33 1.30 1.37 1.51 1.56
0.51 0.62 0.62 0.56 0.49 0.45 0.49 0.49 0.46 0.41 0.42 0.39 0.39 0.39 0.45 0.60 0.69 0.54 0.52 0.58 0.72 0.84 0.91 0.93 0.89 0.84 0.88 0.89 0.91 0.93 1.00 1.17 1.38 1.58 1.60 1.51 1.56 1.47 1.39 1.29 1.31 1.33 1.31
0.26 0.31 0.32 0.33 0.33 0.33 0.35 0.35 0.34 0.33 0.31 0.31 0.38 0.45 0.47 0.49 0.55 0.46 0.45 0.55 0.75 0.88 0.88 0.84 0.90 0.91 0.94 1.00 0.93 1.00 0.96 0.94 1.03 1.07 1.21 1.41 1.55 1.72 1.69 1.58 1.59 1.53 1.44
0.09 0.11 0.13 0.16 0.19 0.22 0.22 0.24 0.31 0.34 0.35 0.38 0.49 0.56 0.50 0.44 0.49 0.49 0.55 0.69 0.81 0.90 0.86 0.86 0.93 0.98 1.10 1.15 1.06 1.11 1.07 1.04 1.00 1.11 1.20 1.30 1.39 1.50 1.65 1.69 1.65 1.61 1.48
0.02 0.03 0.04 0.05 0.06 0.09 0.13 0.16 0.21 0.25 0.32 0.39 0.41 0.39 0.39 0.46 0.52 0.51 0.64 0.82 0.94 1.04 1.00 0.99 1.18 1.13 1.10 1.05 1.03 1.18 1.15 1.00 0.92 0.97 1.02 1.10 1.13 1.23 1.35 1.39 1.52 1.59 1.50
0.03 0.04 0.04 0.04 0.03 0.04 0.05 0.06 0.10 0.14 0.17 0.19 0.21 0.25 0.32 0.48 0.53 0.57 0.76 0.86 0.92 1.07 1.09 1.05 0.99 1.12 1.06 0.98 0.98 1.04 1.17 1.06 0.99 1.02 1.02 1.02 1.04 1.07 1.11 1.17 1.29 1.42 1.47
0.02 0.04 0.04 0.03 0.03 0.03 0.03 0.04 0.04 0.06 0.10 0.13 0.16 0.21 0.26 0.33 0.41 0.48 0.61 0.74 0.83 1.00 1.07 0.97 0.87 1.10 1.06 0.97 0.89 0.92 1.06 1.13 1.13 1.17 1.15 1.06 0.98 0.94 0.93 0.99 1.08 1.19 1.29
0.02 0.04 0.04 0.04 0.03 0.02 0.03 0.03 0.03 0.04 0.07 0.10 0.14 0.21 0.27 0.32 0.34 0.40 0.48 0.57 0.69 0.88 0.93 0.94 0.96 1.00 0.92 0.88 0.96 0.99 1.02 1.05 1.14 1.19 1.08 0.93 0.86 0.84 0.90 1.00 1.11 1.20 1.28
0.02 0.02 0.03 0.04 0.04 0.04 0.04 0.04 0.04 0.04 0.07 0.11 0.18 0.24 0.28 0.32 0.34 0.42 0.49 0.53 0.63 0.72 0.74 0.77 0.81 0.78 0.78 0.82 0.89 0.98 1.04 1.08 1.10 1.05 0.94 0.81 0.81 0.86 0.87 0.90 1.02 1.15 1.30
0.01 0.02 0.03 0.04 0.05 0.04 0.03 0.04 0.05 0.05 0.07 0.13 0.17 0.20 0.22 0.24 0.29 0.39 0.52 0.59 0.69 0.79 0.81 0.75 0.76 0.76 0.75 0.75 0.80 0.84 0.88 0.89 0.92 0.90 0.87 0.86 0.84 0.86 0.86 0.84 0.91 0.97 1.00
0.01 0.01 0.02 0.03 0.03 0.04 0.05 0.04 0.04 0.04 0.05 0.06 0.08 0.11 0.17 0.21 0.19 0.22 0.33 0.47 0.63 0.85 1.08 1.08 1.08 1.02 0.94 0.83 0.76 0.70 0.69 0.71 0.75 0.81 0.83 0.81 0.80 0.83 0.87 0.89 0.93 0.97 0.96
0.01 0.01 0.01 0.02 0.02 0.03 0.06 0.10 0.11 0.08 0.04 0.03 0.04 0.08 0.14 0.19 0.18 0.23 0.29 0.35 0.47 0.77 1.13 1.14 1.13 0.98 0.84 0.78 0.68 0.58 0.54 0.57 0.64 0.66 0.69 0.72 0.72 0.75 0.81 0.85 0.86 0.91 0.93
0.02 0.01 0.02 0.03 0.03 0.03 0.04 0.10 0.21 0.26 0.21 0.10 0.06 0.07 0.13 0.20 0.26 0.33 0.43 0.53 0.59 0.73 0.84 0.84 0.77 0.70 0.63 0.54 0.51 0.48 0.44 0.50 0.59 0.60 0.61 0.61 0.62 0.66 0.69 0.77 0.80 0.82 0.86
0.02 0.02 0.05 0.07 0.05 0.04 0.05 0.13 0.19 0.12 0.11 0.13 0.12 0.09 0.09 0.13 0.17 0.24 0.36 0.48 0.50 0.53 0.53 0.48 0.42 0.39 0.39 0.37 0.37 0.38 0.39 0.42 0.50 0.57 0.59 0.56 0.55 0.57 0.62 0.66 0.73 0.81 0.82
0.01 0.02 0.04 0.09 0.09 0.05 0.07 0.11 0.10 0.09 0.11 0.13 0.14 0.13 0.13 0.13 0.16 0.18 0.24 0.29 0.29 0.30 0.30 0.29 0.27 0.26 0.29 0.30 0.31 0.33 0.35 0.39 0.44 0.50 0.53 0.56 0.55 0.53 0.55 0.61 0.65 0.68 0.70
0.01 0.01 0.02 0.05 0.08 0.06 0.06 0.08 0.07 0.08 0.10 0.12 0.12 0.12 0.15 0.19 0.20 0.19 0.19 0.19 0.21 0.23 0.25 0.27 0.25 0.26 0.28 0.29 0.33 0.36 0.40 0.43 0.45 0.51 0.52 0.53 0.57 0.57 0.56 0.59 0.63 0.63 0.65
0.01 0.02 0.02 0.05 0.06 0.04 0.04 0.07 0.09 0.08 0.08 0.10 0.12 0.12 0.15 0.21 0.21 0.20 0.18 0.18 0.18 0.21 0.26 0.30 0.31 0.32 0.31 0.33 0.37 0.41 0.43 0.45 0.48 0.51 0.55 0.56 0.55 0.56 0.57 0.59 0.63 0.64 0.64
0.03 0.03 0.04 0.05 0.07 0.05 0.05 0.06 0.10 0.12 0.11 0.12 0.14 0.13 0.15 0.17 0.20 0.23 0.23 0.23 0.26 0.29 0.28 0.28 0.33 0.34 0.34 0.35 0.39 0.45 0.49 0.50 0.51 0.55 0.60 0.60 0.56 0.56 0.59 0.59 0.61 0.65 0.65
0.03 0.03 0.04 0.06 0.07 0.07 0.07 0.08 0.09 0.10 0.13 0.16 0.17 0.16 0.18 0.20 0.23 0.22 0.23 0.28 0.30 0.29 0.29 0.29 0.31 0.35 0.37 0.38 0.40 0.43 0.46 0.50 0.54 0.57 0.61 0.65 0.62 0.59 0.62 0.66 0.66 0.67 0.72
0.05 0.05 0.06 0.08 0.10 0.11 0.11 0.12 0.12 0.13 0.16 0.20 0.18 0.18 0.18 0.19 0.21 0.20 0.21 0.25 0.28 0.27 0.27 0.28 0.31 0.34 0.37 0.39 0.42 0.43 0.48 0.52 0.55 0.57 0.60 0.66 0.68 0.67 0.66 0.71 0.76 0.79 0.83
0.08 0.08 0.10 0.11 0.13 0.15 0.16 0.17 0.17 0.18 0.19 0.19 0.19 0.20 0.22 0.22 0.24 0.23 0.22 0.24 0.26 0.27 0.27 0.29 0.31 0.33 0.34 0.36 0.40 0.47 0.50 0.48 0.49 0.55 0.59 0.67 0.74 0.76 0.76 0.76 0.76 0.80 0.84

GEFSGL_prec_meanprecacc_180.txt.gz
Total_Precipitation_Accumulation
1.10 1.10 1.09 1.06 0.95 0.93 0.98 0.98 0.97 0.97 1.01 1.00 0.92 0.85 0.92 0.92 0.89 0.95 1.02 1.08 1.14 1.29 1.44 1.57 1.72 1.97 2.26 2.27 2.21 2.08 1.96 1.81 1.58 1.43 1.22 1.15 1.47 1.56 1.45 1.32 1.28 1.26 1.04
1.02 1.04 1.03 0.92 0.86 0.82 0.80 0.77 0.69 0.66 0.69 0.78 0.87 0.82 0.80 0.83 0.86 0.92 0.95 0.99 1.01 1.09 1.19 1.32 1.50 1.78 2.12 2.33 2.40 2.29 2.13 1.98 1.84 1.68 1.34 1.10 1.23 1.57 1.70 1.62 1.39 1.23 1.11
1.10 0.95 0.84 0.80 0.76 0.74 0.66 0.61 0.58 0.52 0.52 0.57 0.66 0.67 0.76 0.83 0.86 0.88 0.90 0.94 0.96 1.04 1.19 1.24 1.30 1.49 1.68 1.89 2.07 2.19 2.18 2.15 2.13 1.89 1.58 1.31 1.25 1.38 1.63 1.65 1.56 1.51 1.29
1.20 1.09 0.94 0.84 0.76 0.71 0.63 0.58 0.54 0.52 0.54 0.61 0.73 0.78 0.73 0.71 0.76 0.86 0.90 0.86 0.85 0.88 0.97 1.06 1.16 1.21 1.36 1.50 1.61 1.80 2.01 2.24 2.32 2.18 1.91 1.59 1.46 1.35 1.46 1.61 1.68 1.62 1.53
1.17 1.17 1.03 0.95 0.86 0.73 0.66 0.64 0.61 0.64 0.61 0.63 0.73 0.83 0.90 0.85 0.82 0.91 0.88 0.86 0.85 0.84 0.89 0.89 0.95 0.98 1.04 1.22 1.27 1.48 1.81 2.07 2.19 2.26 2.13 1.83 1.56 1.39 1.18 1.28 1.54 1.76 1.75
0.81 0.91 0.88 0.78 0.68 0.64 0.62 0.60 0.56 0.55 0.51 0.50 0.54 0.61 0.70 0.74 0.94 0.90 0.75 0.71 0.77 0.83 0.88 0.87 0.89 0.83 0.82 0.88 1.01 1.14 1.44 1.65 1.79 1.87 1.89 1.73 1.52 1.38 1.33 1.30 1.37 1.51 1.56
0.51 0.62 0.62 0.56 0.49 0.45 0.49 0.49 0.46 0.41 0.42 0.39 0.39 0.39 0.45 0.60 0.69 0.54 0.53 0.58 0.72 0.84 0.91 0.93 0.89 0.84 0.88 0.89 0.91 0.93 1.00 1.17 1.39 1.59 1.61 1.51 1.56 1.47 1.39 1.29 1.31 1.33 1.31
0.27 0.31 0.32 0.33 0.33 0.33 0.35 0.35 0.35 0.33 0.31 0.31 0.38 0.45 0.47 0.49 0.56 0.46 0.45 0.55 0.75 0.88 0.88 0.84 0.90 0.91 0.94 1.00 0.93 1.00 0.96 0.94 1.03 1.08 1.22 1.41 1.56 1.72 1.69 1.58 1.59 1.53 1.44
0.09 0.11 0.13 0.16 0.19 0.22 0.23 0.25 0.32 0.35 0.35 0.38 0.49 0.56 0.50 0.44 0.49 0.49 0.55 0.69 0.81 0.90 0.87 0.86 0.93 0.98 1.10 1.15 1.06 1.11 1.08 1.04 1.01 1.12 1.21 1.32 1.39 1.50 1.65 1.69 1.65 1.61 1.48
0.05 0.05 0.06 0.06 0.07 0.10 0.14 0.17 0.21 0.26 0.32 0.40 0.42 0.39 0.40 0.46 0.52 0.51 0.64 0.82 0.94 1.04 1.00 0.99 1.18 1.13 1.10 1.05 1.03 1.18 1.15 1.00 0.93 0.97 1.03 1.11 1.14 1.24 1.35 1.39 1.52 1.59 1.50
0.05 0.06 0.06 0.06 0.05 0.05 0.06 0.07 0.10 0.15 0.17 0.20 0.21 0.26 0.33 0.48 0.54 0.57 0.77 0.86 0.92 1.07 1.09 1.05 0.99 1.12 1.06 0.99 0.98 1.04 1.17 1.06 1.00 1.03 1.03 1.03 1.05 1.08 1.11 1.17 1.29 1.42 1.47
0.03 0.05 0.05 0.04 0.04 0.03 0.03 0.04 0.04 0.07 0.10 0.13 0.17 0.23 0.28 0.34 0.42 0.48 0.61 0.74 0.83 1.00 1.08 0.98 0.88 1.11 1.07 0.97 0.89 0.92 1.06 1.13 1.13 1.17 1.15 1.06 0.98 0.94 0.93 0.99 1.08 1.19 1.29
0.03 0.05 0.05 0.05 0.06 0.04 0.04 0.04 0.03 0.05 0.08 0.10 0.14 0.21 0.30 0.34 0.36 0.42 0.48 0.58 0.70 0.88 0.93 0.95 0.96 1.00 0.92 0.88 0.96 0.99 1.02 1.05 1.14 1.19 1.08 0.93 0.86 0.84 0.90 1.00 1.11 1.20 1.28
0.03 0.03 0.04 0.05 0.07 0.05 0.05 0.05 0.04 0.04 0.07 0.11 0.18 0.24 0.29 0.34 0.36 0.44 0.52 0.54 0.63 0.72 0.74 0.78 0.82 0.79 0.78 0.82 0.89 0.98 1.04 1.09 1.11 1.05 0.94 0.81 0.82 0.87 0.88 0.91 1.03 1.15 1.30
0.03 0.03 0.04 0.06 0.07 0.05 0.04 0.04 0.05 0.05 0.07 0.13 0.17 0.20 0.22 0.25 0.31 0.41 0.55 0.62 0.72 0.81 0.82 0.75 0.77 0.77 0.75 0.75 0.80 0.84 0.89 0.90 0.93 0.91 0.88 0.86 0.85 0.86 0.86 0.85 0.92 0.98 1.00
0.03 0.03 0.04 0.05 0.05 0.05 0.06 0.05 0.04 0.04 0.05 0.06 0.08 0.11 0.17 0.21 0.19 0.23 0.34 0.50 0.67 0.90 1.12 1.11 1.11 1.04 0.94 0.84 0.77 0.72 0.70 0.73 0.77 0.82 0.84 0.82 0.81 0.84 0.89 0.90 0.93 0.98 0.96
0.03 0.03 0.03 0.03 0.03 0.04 0.06 0.10 0.12 0.08 0.04 0.03 0.04 0.08 0.14 0.19 0.18 0.23 0.30 0.36 0.49 0.80 1.16 1.17 1.15 1.01 0.86 0.79 0.69 0.60 0.56 0.58 0.66 0.67 0.70 0.74 0.73 0.76 0.82 0.86 0.87 0.92 0.94
0.02 0.02 0.02 0.03 0.04 0.04 0.05 0.10 0.21 0.27 0.21 0.10 0.06 0.07 0.13 0.20 0.26 0.34 0.44 0.54 0.60 0.74 0.86 0.87 0.80 0.72 0.65 0.55 0.52 0.50 0.47 0.51 0.60 0.62 0.63 0.63 0.63 0.67 0.70 0.78 0.81 0.82 0.86
0.02 0.03 0.05 0.08 0.06 0.05 0.06 0.14 0.19 0.13 0.11 0.13 0.12 0.09 0.10 0.14 0.18 0.25 0.37 0.48 0.51 0.54 0.54 0.49 0.43 0.41 0.40 0.38 0.38 0.40 0.41 0.45 0.51 0.59 0.60 0.57 0.56 0.59 0.63 0.67 0.74 0.82 0.83
0.01 0.02 0.04 0.10 0.10 0.06 0.07 0.11 0.10 0.09 0.11 0.13 0.14 0.13 0.14 0.14 0.16 0.19 0.24 0.29 0.30 0.31 0.30 0.30 0.28 0.27 0.30 0.30 0.32 0.34 0.36 0.40 0.45 0.52 0.54 0.57 0.56 0.54 0.56 0.61 0.66 0.69 0.70
0.01 0.01 0.02 0.05 0.08 0.06 0.07 0.08 0.07 0.08 0.10 0.12 0.12 0.12 0.15 0.20 0.20 0.20 0.19 0.19 0.21 0.23 0.26 0.27 0.26 0.27 0.30 0.30 0.33 0.36 0.41 0.43 0.45 0.52 0.53 0.54 0.57 0.58 0.57 0.60 0.63 0.64 0.66
0.01 0.02 0.03 0.05 0.06 0.04 0.05 0.07 0.09 0.08 0.08 0.11 0.12 0.13 0.15 0.21 0.22 0.21 0.19 0.18 0.19 0.21 0.27 0.30 0.31 0.32 0.32 0.34 0.38 0.42 0.44 0.45 0.48 0.52 0.56 0.57 0.56 0.57 0.59 0.60 0.64 0.66 0.66
0.03 0.03 0.04 0.05 0.07 0.05 0.05 0.06 0.10 0.12 0.11 0.12 0.14 0.14 0.15 0.18 0.20 0.24 0.24 0.23 0.26 0.29 0.28 0.29 0.33 0.35 0.34 0.35 0.39 0.45 0.50 0.51 0.52 0.56 0.62 0.62 0.58 0.58 0.61 0.61 0.63 0.66 0.68
0.03 0.03 0.04 0.06 0.07 0.07 0.07 0.08 0.09 0.10 0.13 0.16 0.17 0.16 0.18 0.21 0.23 0.22 0.23 0.29 0.31 0.30 0.29 0.29 0.31 0.35 0.37 0.39 0.41 0.44 0.47 0.50 0.55 0.58 0.63 0.67 0.64 0.61 0.64 0.68 0.68 0.70 0.74
0.05 0.05 0.06 0.08 0.11 0.12 0.12 0.13 0.13 0.13 0.16 0.20 0.19 0.19 0.18 0.19 0.21 0.20 0.21 0.25 0.28 0.27 0.27 0.29 0.31 0.34 0.37 0.39 0.42 0.44 0.49 0.53 0.56 0.58 0.61 0.67 0.69 0.68 0.68 0.73 0.78 0.81 0.84
0.08 0.09 0.11 0.12 0.14 0.16 0.17 0.18 0.18 0.18 0.20 0.19 0.19 0.21 0.22 0.23 0.24 0.23 0.23 0.24 0.26 0.27 0.28 0.29 0.31 0.34 0.35 0.36 0.41 0.47 0.51 0.49 0.50 0.56 0.60 0.68 0.75 0.77 0.78 0.78 0.78 0.82 0.86

GEFSGL_prec_meanprecacc_186.txt.gz
Total_Precipitation_Accumulation
1.10 1.10 1.09 1.06 0.95 0.93 0.98 0.98 0.97 0.97 1.01 1.00 0.92 0.85 0.92 0.92 0.89 0.96 1.02 1.08 1.15 1.29 1.44 1.57 1.72 1.97 2.26 2.27 2.21 2.08 1.96 1.82 1.59 1.44 1.23 1.15 1.47 1.58 1.48 1.35 1.31 1.28 1.05
1.03 1.04 1.03 0.92 0.86 0.82 0.80 0.77 0.69 0.66 0.69 0.78 0.87 0.82 0.80 0.83 0.86 0.93 0.95 0.99 1.01 1.10 1.20 1.33 1.51 1.79 2.13 2.34 2.41 2.29 2.13 1.98 1.85 1.69 1.36 1.11 1.23 1.58 1.72 1.66 1.43 1.26 1.13
1.10 0.95 0.85 0.80 0.76 0.74 0.66 0.61 0.58 0.52 0.52 0.57 0.66 0.67 0.76 0.83 0.86 0.88 0.90 0.94 0.96 1.05 1.19 1.25 1.30 1.50 1.69 1.90 2.08 2.20 2.18 2.15 2.13 1.89 1.58 1.32 1.25 1.39 1.64 1.66 1.57 1.52 1.30
1.20 1.09 0.94 0.84 0.76 0.71 0.63 0.58 0.54 0.52 0.55 0.61 0.73 0.78 0.73 0.71 0.76 0.86 0.90 0.86 0.85 0.89 0.97 1.07 1.17 1.21 1.37 1.51 1.61 1.80 2.01 2.24 2.32 2.18 1.91 1.59 1.47 1.36 1.46 1.62 1.68 1.62 1.53
1.17 1.18 1.03 0.95 0.86 0.73 0.66 0.64 0.61 0.64 0.61 0.63 0.73 0.84 0.90 0.85 0.82 0.91 0.88 0.86 0.85 0.84 0.89 0.89 0.96 0.98 1.04 1.22 1.27 1.49 1.81 2.07 2.19 2.26 2.14 1.84 1.57 1.40 1.19 1.29 1.54 1.76 1.75
0.82 0.91 0.88 0.78 0.68 0.64 0.63 0.60 0.56 0.55 0.51 0.50 0.54 0.61 0.70 0.74 0.94 0.90 0.75 0.71 0.77 0.83 0.88 0.87 0.89 0.84 0.82 0.88 1.01 1.14 1.44 1.65 1.79 1.87 1.89 1.74 1.53 1.39 1.34 1.31 1.37 1.51 1.57
0.52 0.62 0.62 0.56 0.50 0.46 0.49 0.49 0.46 0.41 0.42 0.40 0.39 0.39 0.45 0.60 0.69 0.54 0.53 0.58 0.72 0.84 0.91 0.94 0.90 0.84 0.89 0.90 0.91 0.93 1.00 1.17 1.39 1.59 1.61 1.51 1.57 1.48 1.40 1.30 1.31 1.33 1.32
0.27 0.31 0.33 0.34 0.33 0.34 0.36 0.36 0.36 0.35 0.33 0.31 0.38 0.45 0.47 0.49 0.56 0.46 0.45 0.55 0.75 0.88 0.88 0.84 0.91 0.92 0.94 1.00 0.94 1.01 0.96 0.94 1.03 1.08 1.22 1.42 1.57 1.73 1.70 1.59 1.60 1.54 1.45
0.10 0.12 0.14 0.17 0.21 0.25 0.26 0.29 0.36 0.38 0.37 0.39 0.50 0.57 0.51 0.44 0.49 0.50 0.55 0.69 0.82 0.90 0.87 0.86 0.94 0.98 1.11 1.16 1.06 1.11 1.08 1.04 1.01 1.12 1.21 1.32 1.40 1.52 1.66 1.70 1.66 1.62 1.48
0.05 0.06 0.08 0.10 0.12 0.15 0.19 0.22 0.24 0.27 0.33 0.40 0.42 0.40 0.41 0.47 0.54 0.52 0.64 0.82 0.94 1.04 1.00 0.99 1.18 1.13 1.11 1.05 1.03 1.18 1.15 1.00 0.93 0.97 1.03 1.11 1.15 1.24 1.36 1.40 1.52 1.59 1.50
0.05 0.08 0.10 0.11 0.10 0.10 0.09 0.08 0.11 0.16 0.18 0.20 0.22 0.27 0.34 0.49 0.54 0.57 0.77 0.86 0.92 1.07 1.09 1.05 0.99 1.12 1.06 0.99 0.98 1.04 1.17 1.06 1.00 1.03 1.03 1.03 1.05 1.08 1.12 1.17 1.29 1.42 1.47
0.04 0.07 0.08 0.07 0.06 0.06 0.06 0.05 0.05 0.08 0.11 0.14 0.17 0.23 0.29 0.35 0.42 0.49 0.62 0.75 0.83 1.00 1.08 0.98 0.88 1.11 1.07 0.98 0.89 0.92 1.07 1.13 1.13 1.17 1.15 1.07 0.98 0.95 0.94 1.00 1.08 1.19 1.29
0.04 0.05 0.06 0.06 0.07 0.05 0.05 0.05 0.05 0.06 0.08 0.10 0.15 0.22 0.30 0.35 0.37 0.43 0.50 0.59 0.71 0.88 0.94 0.95 0.96 1.00 0.92 0.88 0.97 1.00 1.02 1.05 1.14 1.20 1.08 0.93 0.87 0.85 0.91 1.01 1.12 1.21 1.28
0.04 0.05 0.06 0.06 0.08 0.06 0.06 0.06 0.06 0.05 0.08 0.12 0.19 0.25 0.29 0.34 0.36 0.45 0.53 0.56 0.65 0.73 0.75 0.78 0.82 0.79 0.79 0.83 0.90 0.99 1.04 1.09 1.11 1.05 0.94 0.82 0.82 0.87 0.89 0.92 1.03 1.16 1.30
0.03 0.05 0.05 0.07 0.08 0.05 0.05 0.05 0.05 0.06 0.08 0.14 0.17 0.21 0.23 0.25 0.31 0.41 0.55 0.64 0.74 0.83 0.84 0.76 0.77 0.77 0.76 0.76 0.81 0.85 0.89 0.90 0.93 0.91 0.88 0.86 0.85 0.87 0.87 0.86 0.93 0.98 1.00
0.03 0.04 0.05 0.05 0.05 0.05 0.06 0.05 0.04 0.04 0.05 0.07 0.08 0.12 0.18 0.22 0.20 0.24 0.34 0.51 0.69 0.94 1.18 1.14 1.12 1.05 0.95 0.84 0.77 0.72 0.71 0.73 0.77 0.82 0.84 0.82 0.81 0.84 0.89 0.91 0.94 0.98 0.97
0.03 0.04 0.04 0.04 0.04 0.04 0.07 0.11 0.12 0.08 0.05 0.04 0.05 0.08 0.15 0.20 0.19 0.23 0.31 0.37 0.49 0.82 1.21 1.20 1.18 1.02 0.88 0.81 0.70 0.61 0.57 0.59 0.67 0.68 0.71 0.74 0.74 0.77 0.83 0.86 0.87 0.92 0.94
0.02 0.02 0.03 0.05 0.05 0.05 0.06 0.11 0.22 0.27 0.21 0.10 0.07 0.08 0.14 0.21 0.26 0.34 0.44 0.54 0.61 0.75 0.89 0.90 0.82 0.75 0.68 0.57 0.53 0.51 0.48 0.52 0.61 0.63 0.64 0.64 0.65 0.69 0.72 0.79 0.82 0.83 0.87
0.02 0.03 0.06 0.09 0.08 0.06 0.07 0.14 0.20 0.13 0.12 0.14 0.12 0.09 0.11 0.14 0.18 0.26 0.38 0.49 0.51 0.55 0.55 0.51 0.45 0.43 0.44 0.42 0.41 0.40 0.41 0.45 0.52 0.60 0.62 0.60 0.59 0.61 0.65 0.69 0.76 0.83 0.84
0.02 0.03 0.05 0.11 0.12 0.07 0.08 0.11 0.10 0.09 0.11 0.14 0.15 0.14 0.15 0.15 0.16 0.19 0.25 0.29 0.30 0.31 0.30 0.30 0.29 0.30 0.33 0.33 0.34 0.35 0.36 0.40 0.46 0.52 0.56 0.59 0.58 0.56 0.59 0.64 0.68 0.71 0.72
0.01 0.01 0.02 0.06 0.09 0.07 0.07 0.09 0.07 0.08 0.11 0.12 0.13 0.13 0.16 0.20 0.20 0.20 0.19 0.19 0.21 0.23 0.26 0.27 0.26 0.28 0.31 0.31 0.34 0.37 0.41 0.44 0.46 0.53 0.54 0.56 0.59 0.60 0.59 0.62 0.66 0.66 0.69
0.01 0.02 0.03 0.05 0.06 0.05 0.05 0.08 0.10 0.08 0.09 0.11 0.13 0.13 0.16 0.21 0.22 0.21 0.19 0.18 0.19 0.21 0.27 0.30 0.31 0.32 0.32 0.34 0.39 0.42 0.44 0.46 0.49 0.52 0.58 0.59 0.58 0.59 0.61 0.62 0.67 0.68 0.69
0.03 0.04 0.04 0.05 0.07 0.06 0.06 0.07 0.11 0.13 0.12 0.13 0.14 0.14 0.15 0.18 0.20 0.24 0.24 0.24 0.27 0.30 0.28 0.29 0.33 0.35 0.34 0.35 0.39 0.45 0.51 0.52 0.54 0.58 0.63 0.63 0.60 0.60 0.63 0.63 0.64 0.68 0.70
0.04 0.04 0.04 0.06 0.07 0.08 0.08 0.09 0.10 0.11 0.14 0.18 0.18 0.17 0.18 0.21 0.24 0.23 0.23 0.29 0.31 0.30 0.30 0.29 0.31 0.35 0.37 0.39 0.41 0.44 0.47 0.51 0.56 0.60 0.64 0.68 0.66 0.62 0.65 0.70 0.71 0.72 0.77
0.05 0.05 0.06 0.08 0.11 0.12 0.13 0.14 0.14 0.14 0.18 0.22 0.20 0.19 0.19 0.20 0.22 0.21 0.21 0.26 0.28 0.27 0.27 0.29 0.31 0.35 0.37 0.39 0.42 0.44 0.49 0.54 0.57 0.59 0.62 0.69 0.71 0.70 0.70 0.75 0.81 0.83 0.87
0.09 0.10 0.11 0.13 0.15 0.17 0.18 0.19 0.19 0.19 0.20 0.20 0.20 0.22 0.23 0.23 0.25 0.24 0.23 0.24 0.27 0.28 0.28 0.29 0.31 0.34 0.35 0.36 0.41 0.48 0.51 0.49 0.51 0.57 0.61 0.69 0.77 0.79 0.79 0.80 0.80 0.84 0.87

GEFSGL_prec_meanprecacc_192.txt.gz
Total_Precipitation_Accumulation
1.11 1.12 1.11 1.07 0.95 0.93 0.99 0.99 0.97 0.97 1.01 1.00 0.92 0.85 0.92 0.92 0.89 0.96 1.02 1.08 1.15 1.30 1.44 1.57 1.72 1.97 2.27 2.28 2.22 2.09 1.97 1.83 1.61 1.45 1.25 1.17 1.49 1.59 1.50 1.38 1.34 1.31 1.07
1.03 1.06 1.05 0.94 0.87 0.83 0.80 0.77 0.69 0.66 0.69 0.78 0.87 0.82 0.80 0.83 0.86 0.93 0.95 0.99 1.02 1.11 1.21 1.34 1.52 1.81 2.15 2.35 2.42 2.31 2.15 2.00 1.86 1.70 1.38 1.13 1.25 1.60 1.74 1.68 1.45 1.29 1.15
1.11 0.96 0.86 0.81 0.76 0.75 0.66 0.61 0.58 0.52 0.52 0.57 0.66 0.67 0.76 0.84 0.86 0.88 0.90 0.94 0.96 1.05 1.19 1.25 1.30 1.50 1.69 1.90 2.08 2.20 2.18 2.16 2.13 1.90 1.59 1.33 1.26 1.39 1.65 1.67 1.59 1.55 1.32
1.20 1.10 0.95 0.84 0.76 0.71 0.63 0.58 0.54 0.52 0.55 0.61 0.73 0.78 0.73 0.71 0.76 0.86 0.90 0.86 0.85 0.89 0.97 1.07 1.17 1.21 1.37 1.51 1.62 1.80 2.02 2.25 2.33 2.19 1.92 1.60 1.47 1.36 1.47 1.63 1.70 1.65 1.57
1.17 1.18 1.03 0.95 0.87 0.73 0.66 0.65 0.61 0.64 0.61 0.63 0.73 0.84 0.90 0.85 0.82 0.91 0.88 0.86 0.85 0.84 0.89 0.90 0.96 0.98 1.04 1.23 1.27 1.49 1.81 2.08 2.20 2.27 2.14 1.84 1.58 1.40 1.19 1.29 1.55 1.78 1.79
0.82 0.91 0.88 0.79 0.68 0.64 0.63 0.60 0.57 0.55 0.51 0.50 0.54 0.61 0.70 0.74 0.94 0.90 0.75 0.71 0.77 0.83 0.88 0.87 0.89 0.84 0.82 0.89 1.02 1.15 1.45 1.66 1.80 1.87 1.90 1.74 1.53 1.40 1.35 1.31 1.38 1.53 1.59
0.52 0.62 0.62 0.57 0.50 0.46 0.50 0.49 0.47 0.42 0.43 0.41 0.40 0.40 0.46 0.61 0.69 0.54 0.53 0.59 0.72 0.84 0.91 0.94 0.90 0.84 0.89 0.90 0.91 0.93 1.00 1.18 1.39 1.59 1.62 1.52 1.57 1.49 1.41 1.31 1.32 1.34 1.33
0.27 0.32 0.33 0.34 0.34 0.34 0.36 0.37 0.37 0.36 0.35 0.34 0.40 0.46 0.47 0.49 0.56 0.46 0.46 0.55 0.75 0.88 0.88 0.84 0.91 0.92 0.94 1.00 0.94 1.01 0.97 0.95 1.03 1.08 1.22 1.42 1.57 1.73 1.71 1.60 1.61 1.55 1.46
0.11 0.13 0.15 0.18 0.22 0.27 0.29 0.33 0.41 0.43 0.40 0.41 0.51 0.57 0.51 0.44 0.50 0.50 0.55 0.69 0.82 0.90 0.87 0.86 0.94 0.98 1.11 1.16 1.07 1.12 1.08 1.04 1.01 1.12 1.21 1.32 1.40 1.52 1.67 1.71 1.67 1.63 1.50
0.06 0.06 0.09 0.11 0.13 0.17 0.23 0.26 0.27 0.29 0.34 0.41 0.43 0.40 0.41 0.47 0.54 0.52 0.64 0.82 0.94 1.04 1.00 0.99 1.18 1.13 1.11 1.06 1.03 1.18 1.15 1.01 0.94 0.98 1.03 1.11 1.15 1.24 1.36 1.41 1.54 1.61 1.52
0.05 0.08 0.10 0.11 0.11 0.12 0.10 0.09 0.11 0.17 0.19 0.20 0.22 0.27 0.34 0.49 0.54 0.57 0.77 0.86 0.93 1.07 1.09 1.05 0.99 1.12 1.06 0.99 0.98 1.04 1.18 1.07 1.00 1.03 1.03 1.03 1.05 1.08 1.12 1.18 1.30 1.44 1.49
0.04 0.07 0.08 0.07 0.06 0.06 0.07 0.06 0.06 0.09 0.11 0.14 0.17 0.23 0.29 0.36 0.43 0.49 0.62 0.75 0.83 1.00 1.08 0.98 0.88 1.11 1.07 0.98 0.90 0.92 1.07 1.14 1.14 1.18 1.16 1.07 0.98 0.95 0.94 1.01 1.10 1.21 1.31
0.04 0.06 0.06 0.06 0.07 0.06 0.05 0.05 0.05 0.06 0.08 0.10 0.15 0.22 0.31 0.35 0.37 0.43 0.50 0.59 0.71 0.89 0.94 0.95 0.97 1.01 0.93 0.89 0.97 1.01 1.03 1.06 1.15 1.20 1.09 0.94 0.87 0.85 0.92 1.03 1.14 1.23 1.30
0.04 0.05 0.06 0.07 0.08 0.06 0.06 0.07 0.06 0.06 0.08 0.12 0.19 0.25 0.29 0.34 0.37 0.46 0.54 0.57 0.65 0.74 0.75 0.78 0.82 0.79 0.79 0.83 0.90 0.99 1.05 1.10 1.11 1.05 0.94 0.82 0.83 0.88 0.90 0.93 1.07 1.19 1.32
0.04 0.05 0.06 0.08 0.08 0.06 0.05 0.06 0.06 0.06 0.09 0.14 0.18 0.22 0.23 0.26 0.32 0.42 0.57 0.65 0.75 0.84 0.85 0.77 0.78 0.78 0.77 0.77 0.81 0.85 0.90 0.90 0.94 0.92 0.88 0.87 0.86 0.88 0.88 0.87 0.95 1.02 1.03
0.03 0.04 0.05 0.06 0.05 0.06 0.06 0.05 0.04 0.05 0.06 0.07 0.08 0.12 0.18 0.22 0.21 0.24 0.36 0.52 0.70 0.96 1.20 1.15 1.13 1.06 0.97 0.85 0.78 0.73 0.71 0.73 0.77 0.82 0.84 0.82 0.82 0.85 0.90 0.92 0.96 1.02 1.01
0.03 0.04 0.04 0.04 0.04 0.05 0.07 0.11 0.12 0.09 0.05 0.04 0.05 0.09 0.15 0.20 0.19 0.24 0.32 0.37 0.50 0.83 1.22 1.21 1.19 1.04 0.90 0.82 0.71 0.62 0.57 0.59 0.67 0.68 0.71 0.74 0.74 0.78 0.84 0.88 0.89 0.95 0.97
0.02 0.03 0.04 0.05 0.05 0.05 0.06 0.11 0.22 0.27 0.22 0.11 0.07 0.08 0.14 0.21 0.27 0.34 0.45 0.55 0.62 0.76 0.90 0.90 0.83 0.77 0.70 0.58 0.54 0.52 0.49 0.53 0.61 0.63 0.64 0.64 0.65 0.69 0.73 0.80 0.83 0.84 0.88
0.03 0.03 0.06 0.09 0.08 0.06 0.07 0.15 0.20 0.14 0.12 0.14 0.13 0.10 0.11 0.14 0.19 0.26 0.38 0.49 0.52 0.55 0.56 0.51 0.46 0.45 0.46 0.43 0.42 0.41 0.42 0.46 0.53 0.60 0.62 0.60 0.59 0.62 0.66 0.70 0.76 0.84 0.85
0.02 0.03 0.06 0.12 0.12 0.07 0.08 0.12 0.11 0.10 0.12 0.14 0.15 0.14 0.15 0.15 0.16 0.19 0.25 0.29 0.30 0.31 0.30 0.30 0.29 0.30 0.33 0.34 0.36 0.38 0.38 0.41 0.46 0.53 0.56 0.59 0.58 0.57 0.60 0.65 0.69 0.72 0.73
0.01 0.02 0.03 0.06 0.09 0.07 0.08 0.09 0.08 0.09 0.11 0.12 0.13 0.13 0.17 0.20 0.20 0.20 0.19 0.19 0.21 0.24 0.26 0.27 0.26 0.28 0.32 0.32 0.35 0.39 0.43 0.45 0.47 0.54 0.55 0.56 0.60 0.61 0.60 0.63 0.67 0.67 0.70
0.02 0.02 0.03 0.05 0.07 0.06 0.07 0.09 0.11 0.09 0.09 0.11 0.13 0.14 0.16 0.21 0.22 0.21 0.19 0.19 0.19 0.21 0.27 0.31 0.32 0.32 0.32 0.35 0.39 0.43 0.45 0.47 0.50 0.53 0.58 0.60 0.59 0.60 0.61 0.63 0.68 0.69 0.70
0.03 0.04 0.04 0.05 0.07 0.06 0.06 0.08 0.12 0.14 0.13 0.14 0.15 0.15 0.15 0.18 0.20 0.24 0.24 0.24 0.27 0.30 0.29 0.29 0.34 0.35 0.34 0.36 0.40 0.46 0.52 0.53 0.55 0.59 0.65 0.65 0.61 0.61 0.64 0.63 0.65 0.69 0.71
0.04 0.04 0.04 0.06 0.07 0.08 0.08 0.09 0.10 0.12 0.15 0.18 0.18 0.17 0.19 0.21 0.24 0.23 0.23 0.29 0.31 0.31 0.30 0.30 0.32 0.36 0.38 0.39 0.41 0.44 0.48 0.51 0.56 0.61 0.65 0.69 0.67 0.63 0.66 0.71 0.72 0.74 0.79
0.05 0.06 0.06 0.08 0.11 0.12 0.13 0.14 0.14 0.15 0.18 0.22 0.20 0.20 0.19 0.20 0.22 0.21 0.22 0.26 0.29 0.28 0.28 0.29 0.32 0.35 0.38 0.40 0.43 0.44 0.50 0.54 0.57 0.60 0.63 0.70 0.72 0.71 0.71 0.77 0.83 0.85 0.89
0.09 0.10 0.12 0.13 0.15 0.17 0.18 0.19 0.19 0.19 0.20 0.20 0.20 0.22 0.23 0.24 0.25 0.24 0.24 0.25 0.27 0.28 0.28 0.30 0.31 0.34 0.35 0.36 0.41 0.48 0.52 0.50 0.52 0.57 0.62 0.71 0.78 0.80 0.81 0.82 0.83 0.86 0.90

GEFSGL_prec_meanprecacc_198.txt.gz
Total_Precipitation_Accumulation
1.12 1.13 1.12 1.08 0.97 0.96 1.01 0.99 0.97 0.97 1.01 1.00 0.92 0.86 0.92 0.92 0.90 0.96 1.02 1.08 1.15 1.30 1.44 1.57 1.72 1.98 2.27 2.28 2.22 2.10 1.98 1.84 1.63 1.47 1.26 1.19 1.50 1.61 1.52 1.40 1.36 1.32 1.08
1.04 1.06 1.05 0.95 0.88 0.85 0.83 0.79 0.70 0.67 0.69 0.78 0.87 0.82 0.80 0.83 0.86 0.93 0.95 0.99 1.02 1.11 1.21 1.34 1.52 1.81 2.15 2.36 2.43 2.31 2.15 2.01 1.88 1.72 1.39 1.15 1.28 1.62 1.76 1.70 1.47 1.29 1.15
1.11 0.96 0.86 0.82 0.79 0.77 0.68 0.63 0.59 0.52 0.52 0.57 0.67 0.67 0.76 0.84 0.86 0.89 0.90 0.94 0.96 1.05 1.19 1.25 1.30 1.50 1.70 1.90 2.08 2.20 2.19 2.16 2.14 1.90 1.59 1.33 1.27 1.40 1.65 1.68 1.60 1.55 1.32
1.20 1.10 0.95 0.85 0.78 0.73 0.65 0.60 0.55 0.52 0.55 0.61 0.74 0.78 0.73 0.71 0.76 0.86 0.90 0.86 0.85 0.89 0.97 1.07 1.17 1.21 1.37 1.51 1.62 1.81 2.02 2.26 2.33 2.19 1.92 1.60 1.47 1.36 1.47 1.63 1.70 1.66 1.57
1.17 1.18 1.03 0.95 0.87 0.74 0.68 0.66 0.62 0.65 0.61 0.63 0.73 0.84 0.91 0.85 0.83 0.91 0.88 0.86 0.85 0.84 0.89 0.90 0.96 0.98 1.05 1.23 1.27 1.49 1.82 2.08 2.20 2.28 2.15 1.85 1.58 1.40 1.19 1.30 1.56 1.78 1.80
0.82 0.91 0.88 0.79 0.68 0.65 0.63 0.60 0.57 0.55 0.51 0.51 0.55 0.62 0.71 0.75 0.96 0.91 0.75 0.71 0.77 0.83 0.88 0.87 0.89 0.84 0.82 0.89 1.02 1.15 1.45 1.66 1.80 1.88 1.90 1.75 1.53 1.40 1.35 1.31 1.39 1.53 1.59
0.52 0.62 0.63 0.57 0.50 0.47 0.50 0.50 0.47 0.42 0.44 0.42 0.42 0.42 0.47 0.62 0.70 0.55 0.53 0.59 0.72 0.84 0.91 0.94 0.90 0.84 0.89 0.90 0.92 0.93 1.00 1.18 1.39 1.60 1.62 1.53 1.58 1.49 1.41 1.31 1.32 1.34 1.33
0.27 0.32 0.34 0.35 0.35 0.35 0.37 0.37 0.37 0.37 0.37 0.36 0.41 0.47 0.48 0.50 0.56 0.46 0.46 0.56 0.75 0.88 0.88 0.84 0.91 0.92 0.94 1.01 0.94 1.01 0.97 0.95 1.03 1.08 1.22 1.42 1.57 1.74 1.71 1.60 1.61 1.55 1.46
0.11 0.14 0.16 0.19 0.22 0.27 0.29 0.33 0.42 0.44 0.41 0.41 0.51 0.57 0.51 0.44 0.50 0.50 0.55 0.69 0.82 0.90 0.87 0.86 0.94 0.98 1.11 1.16 1.07 1.12 1.08 1.04 1.01 1.12 1.21 1.32 1.40 1.52 1.67 1.72 1.67 1.64 1.50
0.06 0.07 0.09 0.11 0.13 0.18 0.23 0.26 0.27 0.29 0.34 0.41 0.43 0.40 0.41 0.47 0.54 0.52 0.64 0.82 0.95 1.04 1.00 0.99 1.18 1.13 1.11 1.06 1.03 1.18 1.15 1.01 0.94 0.98 1.03 1.11 1.15 1.25 1.37 1.41 1.54 1.61 1.52
0.06 0.08 0.11 0.11 0.11 0.12 0.11 0.09 0.12 0.17 0.19 0.21 0.22 0.27 0.34 0.49 0.54 0.57 0.77 0.86 0.93 1.08 1.10 1.06 0.99 1.13 1.07 0.99 0.99 1.04 1.18 1.07 1.00 1.04 1.03 1.04 1.06 1.09 1.13 1.19 1.31 1.44 1.49
0.05 0.07 0.08 0.07 0.06 0.07 0.07 0.06 0.07 0.10 0.12 0.15 0.17 0.23 0.29 0.36 0.43 0.49 0.62 0.75 0.84 1.00 1.08 0.98 0.88 1.11 1.07 0.98 0.90 0.92 1.07 1.14 1.14 1.18 1.16 1.07 0.99 0.95 0.95 1.01 1.10 1.21 1.31
0.04 0.06 0.06 0.06 0.07 0.06 0.05 0.06 0.06 0.07 0.09 0.11 0.16 0.22 0.31 0.36 0.37 0.44 0.50 0.59 0.71 0.89 0.94 0.95 0.97 1.01 0.93 0.89 0.97 1.01 1.04 1.06 1.15 1.20 1.09 0.94 0.87 0.86 0.92 1.03 1.15 1.23 1.31
0.05 0.05 0.07 0.07 0.08 0.07 0.06 0.07 0.06 0.06 0.08 0.12 0.19 0.26 0.30 0.35 0.37 0.46 0.55 0.57 0.66 0.74 0.76 0.79 0.82 0.80 0.79 0.84 0.90 1.00 1.05 1.10 1.12 1.06 0.95 0.82 0.83 0.88 0.90 0.94 1.07 1.19 1.33
0.04 0.06 0.06 0.08 0.09 0.06 0.05 0.06 0.06 0.06 0.09 0.14 0.18 0.22 0.24 0.27 0.33 0.43 0.58 0.66 0.76 0.84 0.86 0.77 0.78 0.78 0.77 0.77 0.82 0.85 0.90 0.91 0.94 0.92 0.88 0.87 0.86 0.88 0.89 0.87 0.96 1.03 1.04
0.04 0.05 0.06 0.06 0.06 0.06 0.07 0.06 0.05 0.05 0.06 0.07 0.08 0.12 0.19 0.22 0.21 0.25 0.36 0.53 0.71 0.96 1.20 1.16 1.14 1.06 0.97 0.86 0.78 0.73 0.72 0.75 0.78 0.83 0.84 0.82 0.83 0.87 0.92 0.93 0.97 1.02 1.01
0.04 0.05 0.05 0.04 0.04 0.05 0.07 0.11 0.12 0.09 0.05 0.04 0.05 0.09 0.15 0.20 0.20 0.25 0.32 0.38 0.50 0.83 1.23 1.22 1.19 1.05 0.91 0.82 0.72 0.62 0.58 0.60 0.68 0.69 0.72 0.75 0.76 0.80 0.86 0.89 0.90 0.96 0.99
0.04 0.03 0.04 0.05 0.05 0.06 0.06 0.11 0.22 0.27 0.22 0.11 0.07 0.08 0.14 0.21 0.27 0.34 0.45 0.55 0.62 0.76 0.90 0.91 0.84 0.77 0.70 0.59 0.55 0.52 0.49 0.54 0.62 0.64 0.65 0.65 0.67 0.72 0.74 0.81 0.85 0.86 0.91
0.04 0.04 0.07 0.10 0.09 0.07 0.07 0.15 0.20 0.14 0.13 0.15 0.13 0.10 0.11 0.14 0.19 0.26 0.38 0.49 0.52 0.55 0.56 0.51 0.46 0.45 0.46 0.44 0.42 0.42 0.42 0.46 0.53 0.61 0.63 0.61 0.61 0.63 0.67 0.71 0.78 0.87 0.88
0.02 0.04 0.06 0.12 0.13 0.07 0.08 0.12 0.11 0.10 0.12 0.14 0.15 0.15 0.15 0.15 0.16 0.20 0.25 0.29 0.30 0.31 0.30 0.30 0.30 0.30 0.34 0.34 0.37 0.38 0.38 0.41 0.47 0.53 0.57 0.61 0.60 0.59 0.61 0.67 0.71 0.74 0.74
0.02 0.03 0.04 0.07 0.09 0.08 0.08 0.10 0.08 0.09 0.12 0.13 0.13 0.14 0.17 0.20 0.21 0.20 0.19 0.19 0.22 0.24 0.26 0.27 0.26 0.28 0.32 0.32 0.36 0.39 0.43 0.46 0.47 0.54 0.56 0.57 0.61 0.62 0.61 0.65 0.69 0.68 0.71
0.03 0.03 0.03 0.05 0.07 0.06 0.07 0.10 0.11 0.10 0.10 0.12 0.14 0.14 0.16 0.21 0.22 0.21 0.19 0.19 0.19 0.21 0.27 0.31 0.32 0.33 0.33 0.35 0.40 0.44 0.46 0.48 0.50 0.54 0.60 0.61 0.60 0.61 0.62 0.64 0.69 0.70 0.71
0.04 0.04 0.04 0.05 0.07 0.06 0.06 0.08 0.12 0.14 0.13 0.14 0.15 0.15 0.16 0.18 0.21 0.24 0.25 0.24 0.27 0.30 0.29 0.30 0.34 0.35 0.35 0.36 0.40 0.47 0.52 0.54 0.56 0.60 0.66 0.66 0.62 0.62 0.65 0.64 0.66 0.70 0.72
0.04 0.04 0.05 0.06 0.07 0.08 0.08 0.09 0.10 0.12 0.15 0.18 0.19 0.18 0.19 0.22 0.24 0.23 0.24 0.29 0.31 0.31 0.30 0.30 0.33 0.36 0.38 0.40 0.42 0.45 0.48 0.52 0.57 0.61 0.66 0.69 0.67 0.64 0.67 0.72 0.73 0.75 0.81
0.06 0.06 0.07 0.08 0.11 0.12 0.13 0.14 0.14 0.15 0.18 0.22 0.20 0.20 0.20 0.20 0.22 0.21 0.22 0.26 0.29 0.28 0.28 0.30 0.32 0.36 0.38 0.41 0.44 0.45 0.50 0.54 0.57 0.60 0.64 0.70 0.72 0.72 0.72 0.78 0.84 0.87 0.91
0.09 0.10 0.12 0.13 0.16 0.18 0.19 0.19 0.19 0.19 0.21 0.21 0.20 0.22 0.24 0.24 0.25 0.24 0.24 0.25 0.28 0.29 0.29 0.30 0.32 0.35 0.36 0.37 0.42 0.49 0.52 0.50 0.52 0.58 0.63 0.72 0.79 0.81 0.82 0.83 0.84 0.88 0.92

GEFSGL_prec_meanprecacc_204.txt.gz
Total_Precipitation_Accumulation
1.13 1.14 1.13 1.09 0.98 0.97 1.01 1.01 0.99 0.98 1.02 1.01 0.92 0.86 0.93 0.93 0.90 0.96 1.03 1.09 1.15 1.30 1.44 1.57 1.72 1.98 2.27 2.29 2.23 2.10 1.98 1.85 1.63 1.48 1.27 1.20 1.51 1.62 1.52 1.41 1.37 1.32 1.08
1.05 1.07 1.06 0.96 0.89 0.86 0.84 0.80 0.71 0.67 0.69 0.79 0.87 0.83 0.81 0.84 0.86 0.93 0.95 0.99 1.02 1.11 1.21 1.35 1.53 1.81 2.15 2.36 2.43 2.31 2.16 2.01 1.88 1.72 1.40 1.16 1.28 1.63 1.77 1.70 1.47 1.29 1.15
1.12 0.97 0.87 0.83 0.79 0.78 0.69 0.64 0.61 0.54 0.53 0.57 0.67 0.67 0.77 0.84 0.86 0.89 0.91 0.94 0.97 1.05 1.19 1.25 1.31 1.50 1.70 1.90 2.08 2.21 2.19 2.17 2.15 1.91 1.60 1.33 1.27 1.40 1.66 1.68 1.60 1.55 1.32
1.21 1.10 0.96 0.86 0.79 0.74 0.66 0.61 0.56 0.53 0.55 0.62 0.74 0.78 0.74 0.72 0.77 0.87 0.91 0.86 0.85 0.89 0.97 1.07 1.17 1.22 1.37 1.51 1.62 1.81 2.02 2.26 2.34 2.19 1.92 1.60 1.47 1.37 1.47 1.63 1.70 1.66 1.57
1.18 1.18 1.03 0.96 0.88 0.74 0.68 0.67 0.62 0.65 0.62 0.64 0.74 0.85 0.91 0.87 0.84 0.92 0.88 0.86 0.86 0.84 0.89 0.90 0.97 0.99 1.05 1.23 1.28 1.50 1.82 2.09 2.21 2.28 2.15 1.85 1.58 1.40 1.19 1.30 1.56 1.78 1.80
0.83 0.92 0.89 0.79 0.69 0.65 0.64 0.61 0.57 0.56 0.52 0.51 0.56 0.63 0.72 0.77 0.97 0.92 0.75 0.71 0.77 0.83 0.88 0.87 0.89 0.84 0.82 0.89 1.02 1.15 1.45 1.66 1.80 1.88 1.90 1.75 1.53 1.40 1.35 1.31 1.39 1.53 1.59
0.54 0.64 0.64 0.58 0.51 0.47 0.50 0.50 0.47 0.43 0.44 0.42 0.42 0.42 0.48 0.63 0.71 0.55 0.53 0.59 0.72 0.84 0.91 0.94 0.90 0.84 0.89 0.90 0.92 0.93 1.00 1.18 1.39 1.60 1.63 1.53 1.58 1.49 1.41 1.31 1.32 1.34 1.33
0.29 0.34 0.36 0.36 0.36 0.36 0.37 0.37 0.37 0.37 0.37 0.36 0.41 0.47 0.48 0.50 0.57 0.47 0.46 0.56 0.75 0.88 0.88 0.84 0.91 0.92 0.94 1.01 0.94 1.01 0.97 0.95 1.03 1.08 1.22 1.42 1.57 1.74 1.71 1.60 1.61 1.55 1.46
0.12 0.15 0.17 0.19 0.23 0.27 0.29 0.33 0.42 0.44 0.41 0.41 0.51 0.58 0.52 0.45 0.50 0.50 0.55 0.69 0.82 0.90 0.87 0.87 0.94 0.98 1.11 1.16 1.07 1.12 1.08 1.05 1.02 1.12 1.22 1.32 1.41 1.52 1.67 1.72 1.67 1.64 1.50
0.07 0.08 0.10 0.12 0.14 0.18 0.24 0.26 0.27 0.29 0.34 0.41 0.44 0.41 0.41 0.48 0.55 0.52 0.64 0.82 0.95 1.05 1.00 0.99 1.18 1.13 1.11 1.06 1.03 1.18 1.15 1.01 0.94 0.98 1.03 1.11 1.15 1.25 1.37 1.42 1.54 1.61 1.52
0.08 0.10 0.12 0.12 0.12 0.13 0.11 0.09 0.12 0.17 0.20 0.21 0.24 0.28 0.35 0.50 0.55 0.58 0.77 0.87 0.93 1.08 1.10 1.06 1.00 1.13 1.07 0.99 0.99 1.04 1.18 1.07 1.00 1.04 1.03 1.04 1.06 1.09 1.13 1.19 1.31 1.44 1.49
0.07 0.09 0.10 0.08 0.07 0.07 0.07 0.07 0.07 0.10 0.13 0.16 0.19 0.25 0.31 0.37 0.44 0.50 0.63 0.75 0.84 1.01 1.09 0.99 0.88 1.11 1.07 0.98 0.90 0.93 1.07 1.14 1.14 1.18 1.16 1.07 0.99 0.96 0.95 1.01 1.10 1.21 1.31
0.06 0.08 0.08 0.07 0.08 0.07 0.06 0.06 0.07 0.08 0.10 0.12 0.16 0.24 0.33 0.37 0.38 0.45 0.51 0.59 0.71 0.89 0.94 0.96 0.97 1.01 0.93 0.89 0.98 1.01 1.04 1.06 1.15 1.20 1.09 0.94 0.87 0.86 0.92 1.04 1.15 1.23 1.31
0.06 0.07 0.08 0.09 0.09 0.08 0.07 0.08 0.07 0.07 0.09 0.12 0.19 0.26 0.31 0.36 0.38 0.47 0.55 0.57 0.66 0.74 0.76 0.79 0.83 0.80 0.79 0.84 0.90 1.00 1.05 1.10 1.12 1.06 0.95 0.82 0.83 0.88 0.91 0.94 1.07 1.20 1.33
0.05 0.07 0.08 0.10 0.10 0.07 0.06 0.07 0.07 0.07 0.10 0.15 0.19 0.22 0.24 0.27 0.33 0.44 0.58 0.66 0.76 0.84 0.86 0.77 0.78 0.78 0.77 0.77 0.82 0.85 0.90 0.91 0.94 0.92 0.89 0.87 0.86 0.89 0.90 0.89 0.98 1.04 1.05
0.05 0.06 0.07 0.07 0.07 0.07 0.08 0.07 0.06 0.07 0.07 0.08 0.09 0.13 0.19 0.23 0.21 0.25 0.37 0.53 0.72 0.97 1.21 1.16 1.14 1.07 0.97 0.86 0.79 0.74 0.72 0.75 0.79 0.83 0.85 0.82 0.83 0.88 0.93 0.94 0.98 1.03 1.02
0.04 0.05 0.06 0.06 0.05 0.06 0.08 0.13 0.14 0.11 0.06 0.05 0.06 0.10 0.16 0.22 0.21 0.25 0.33 0.39 0.51 0.84 1.23 1.22 1.19 1.05 0.91 0.82 0.72 0.63 0.58 0.61 0.68 0.69 0.72 0.75 0.76 0.81 0.88 0.91 0.92 0.97 1.00
0.05 0.04 0.05 0.07 0.07 0.07 0.08 0.13 0.24 0.29 0.23 0.12 0.08 0.09 0.15 0.23 0.28 0.35 0.45 0.55 0.62 0.76 0.90 0.91 0.84 0.77 0.70 0.59 0.55 0.52 0.49 0.54 0.62 0.64 0.65 0.66 0.68 0.73 0.76 0.84 0.86 0.87 0.92
0.05 0.06 0.08 0.11 0.10 0.08 0.09 0.16 0.22 0.16 0.15 0.16 0.15 0.11 0.12 0.16 0.20 0.27 0.39 0.50 0.52 0.55 0.56 0.52 0.46 0.45 0.46 0.44 0.42 0.42 0.42 0.46 0.53 0.61 0.63 0.62 0.62 0.65 0.69 0.74 0.81 0.89 0.89
0.03 0.05 0.08 0.14 0.14 0.09 0.10 0.14 0.13 0.12 0.14 0.16 0.16 0.16 0.17 0.16 0.17 0.20 0.26 0.30 0.31 0.32 0.31 0.31 0.30 0.30 0.34 0.34 0.37 0.38 0.39 0.42 0.47 0.54 0.58 0.61 0.61 0.60 0.63 0.70 0.74 0.77 0.76
0.03 0.04 0.06 0.09 0.13 0.11 0.12 0.13 0.12 0.12 0.14 0.14 0.14 0.15 0.18 0.21 0.22 0.21 0.21 0.20 0.23 0.25 0.27 0.28 0.26 0.29 0.32 0.33 0.36 0.40 0.44 0.46 0.48 0.55 0.57 0.58 0.62 0.63 0.64 0.67 0.71 0.71 0.73
0.04 0.04 0.05 0.08 0.10 0.10 0.11 0.13 0.14 0.13 0.12 0.13 0.14 0.15 0.17 0.22 0.22 0.21 0.20 0.20 0.20 0.22 0.28 0.31 0.32 0.33 0.33 0.35 0.40 0.44 0.46 0.48 0.51 0.55 0.61 0.63 0.62 0.63 0.64 0.66 0.70 0.72 0.72
0.05 0.05 0.06 0.07 0.09 0.08 0.08 0.10 0.13 0.15 0.14 0.15 0.16 0.16 0.17 0.19 0.21 0.25 0.25 0.25 0.28 0.31 0.29 0.30 0.34 0.36 0.35 0.37 0.41 0.47 0.53 0.54 0.57 0.62 0.68 0.68 0.64 0.63 0.66 0.65 0.67 0.71 0.73
0.06 0.06 0.06 0.07 0.09 0.09 0.10 0.10 0.12 0.13 0.16 0.19 0.20 0.19 0.20 0.22 0.25 0.24 0.25 0.31 0.33 0.32 0.31 0.31 0.33 0.37 0.39 0.41 0.43 0.46 0.49 0.53 0.58 0.63 0.68 0.71 0.69 0.65 0.68 0.72 0.73 0.75 0.81
0.08 0.08 0.08 0.10 0.12 0.13 0.15 0.16 0.15 0.16 0.19 0.22 0.21 0.21 0.20 0.21 0.23 0.22 0.23 0.28 0.31 0.30 0.30 0.31 0.33 0.36 0.39 0.41 0.44 0.46 0.52 0.56 0.59 0.62 0.65 0.72 0.74 0.73 0.73 0.79 0.85 0.87 0.91
0.12 0.13 0.14 0.15 0.17 0.19 0.20 0.20 0.21 0.21 0.21 0.21 0.21 0.23 0.24 0.24 0.26 0.25 0.25 0.27 0.30 0.31 0.32 0.33 0.34 0.36 0.37 0.38 0.43 0.50 0.54 0.52 0.54 0.60 0.65 0.73 0.80 0.82 0.83 0.84 0.85 0.89 0.92

GEFSGL_prec_meanprecacc_210.txt.gz
Total_Precipitation_Accumulation
1.14 1.15 1.14 1.10 0.99 0.98 1.02 1.01 1.00 0.99 1.03 1.01 0.93 0.86 0.93 0.94 0.90 0.96 1.03 1.09 1.16 1.31 1.45 1.57 1.73 1.99 2.29 2.30 2.24 2.11 1.98 1.85 1.63 1.48 1.27 1.20 1.51 1.62 1.52 1.41 1.37 1.32 1.08
1.06 1.08 1.07 0.97 0.91 0.87 0.85 0.81 0.71 0.68 0.70 0.79 0.88 0.83 0.81 0.85 0.87 0.93 0.96 1.00 1.02 1.11 1.22 1.35 1.53 1.81 2.16 2.37 2.44 2.32 2.16 2.01 1.88 1.73 1.40 1.17 1.29 1.63 1.77 1.70 1.47 1.29 1.15
1.13 0.97 0.88 0.84 0.80 0.79 0.71 0.66 0.63 0.55 0.54 0.58 0.67 0.68 0.78 0.85 0.87 0.89 0.91 0.95 0.97 1.05 1.20 1.25 1.31 1.50 1.70 1.91 2.09 2.21 2.20 2.17 2.15 1.91 1.60 1.34 1.27 1.40 1.66 1.68 1.60 1.55 1.32
1.21 1.11 0.96 0.86 0.80 0.76 0.70 0.67 0.62 0.59 0.59 0.64 0.76 0.79 0.75 0.73 0.78 0.88 0.92 0.87 0.85 0.89 0.98 1.08 1.17 1.22 1.37 1.51 1.62 1.82 2.03 2.27 2.35 2.20 1.92 1.60 1.48 1.37 1.47 1.63 1.70 1.66 1.57
1.18 1.19 1.04 0.96 0.89 0.76 0.70 0.69 0.66 0.70 0.66 0.68 0.77 0.87 0.93 0.87 0.85 0.93 0.89 0.87 0.86 0.85 0.89 0.90 0.97 0.99 1.05 1.23 1.28 1.50 1.83 2.10 2.21 2.28 2.15 1.85 1.58 1.40 1.20 1.30 1.56 1.78 1.80
0.84 0.93 0.90 0.80 0.70 0.66 0.65 0.62 0.59 0.58 0.54 0.53 0.57 0.64 0.73 0.77 0.98 0.93 0.76 0.72 0.77 0.84 0.88 0.88 0.89 0.84 0.82 0.89 1.02 1.15 1.45 1.67 1.81 1.89 1.91 1.75 1.53 1.40 1.35 1.31 1.39 1.53 1.59
0.56 0.66 0.66 0.61 0.53 0.50 0.53 0.52 0.48 0.43 0.44 0.42 0.42 0.42 0.48 0.63 0.72 0.56 0.54 0.59 0.73 0.84 0.91 0.94 0.90 0.84 0.89 0.90 0.92 0.93 1.00 1.18 1.39 1.60 1.63 1.53 1.59 1.50 1.41 1.31 1.32 1.34 1.33
0.31 0.37 0.39 0.39 0.38 0.38 0.39 0.39 0.38 0.38 0.37 0.36 0.41 0.47 0.49 0.51 0.58 0.48 0.46 0.56 0.75 0.88 0.89 0.84 0.91 0.92 0.94 1.01 0.94 1.01 0.97 0.95 1.04 1.09 1.22 1.43 1.57 1.74 1.71 1.61 1.61 1.55 1.46
0.14 0.16 0.19 0.21 0.24 0.28 0.30 0.34 0.43 0.44 0.42 0.41 0.51 0.58 0.52 0.46 0.51 0.52 0.56 0.70 0.82 0.90 0.87 0.87 0.94 0.98 1.11 1.16 1.07 1.12 1.08 1.05 1.02 1.12 1.22 1.33 1.41 1.53 1.68 1.72 1.68 1.64 1.50
0.08 0.09 0.11 0.13 0.15 0.20 0.25 0.28 0.29 0.30 0.35 0.42 0.44 0.41 0.42 0.48 0.55 0.53 0.65 0.83 0.95 1.05 1.00 0.99 1.18 1.13 1.11 1.06 1.04 1.18 1.15 1.01 0.94 0.98 1.03 1.12 1.16 1.25 1.38 1.43 1.55 1.62 1.53
0.08 0.11 0.13 0.13 0.13 0.14 0.12 0.11 0.13 0.18 0.21 0.22 0.24 0.29 0.36 0.50 0.55 0.58 0.78 0.87 0.93 1.08 1.10 1.06 1.00 1.13 1.07 0.99 0.99 1.04 1.18 1.07 1.00 1.04 1.04 1.04 1.06 1.10 1.14 1.20 1.32 1.45 1.50
0.07 0.09 0.10 0.09 0.08 0.08 0.08 0.08 0.08 0.11 0.14 0.16 0.19 0.25 0.31 0.37 0.44 0.50 0.63 0.76 0.84 1.01 1.09 0.99 0.89 1.12 1.08 0.98 0.90 0.93 1.07 1.14 1.14 1.18 1.16 1.07 0.99 0.96 0.95 1.02 1.11 1.22 1.31
0.07 0.09 0.10 0.09 0.09 0.07 0.06 0.07 0.08 0.09 0.10 0.12 0.16 0.24 0.33 0.38 0.39 0.46 0.52 0.61 0.72 0.90 0.95 0.96 0.98 1.01 0.93 0.89 0.98 1.01 1.04 1.06 1.15 1.21 1.09 0.94 0.87 0.86 0.92 1.04 1.15 1.23 1.31
0.07 0.08 0.09 0.10 0.11 0.08 0.08 0.08 0.08 0.07 0.09 0.13 0.20 0.26 0.31 0.36 0.39 0.49 0.58 0.60 0.68 0.76 0.77 0.80 0.83 0.80 0.80 0.84 0.90 1.00 1.05 1.10 1.12 1.06 0.95 0.82 0.83 0.88 0.91 0.94 1.08 1.20 1.34
0.06 0.08 0.09 0.11 0.11 0.08 0.07 0.07 0.08 0.08 0.11 0.16 0.20 0.23 0.25 0.27 0.34 0.45 0.60 0.69 0.78 0.86 0.87 0.78 0.79 0.79 0.77 0.77 0.82 0.86 0.90 0.91 0.94 0.92 0.89 0.87 0.86 0.89 0.90 0.89 0.98 1.05 1.06
0.05 0.07 0.08 0.08 0.08 0.08 0.09 0.07 0.07 0.07 0.08 0.10 0.11 0.14 0.20 0.24 0.23 0.26 0.39 0.55 0.74 0.99 1.22 1.17 1.15 1.07 0.97 0.87 0.79 0.74 0.73 0.75 0.79 0.84 0.85 0.83 0.83 0.88 0.93 0.94 0.98 1.04 1.02
0.05 0.06 0.06 0.06 0.06 0.06 0.09 0.13 0.14 0.11 0.08 0.06 0.07 0.11 0.18 0.23 0.22 0.27 0.36 0.42 0.53 0.85 1.24 1.23 1.20 1.05 0.92 0.83 0.73 0.63 0.59 0.61 0.69 0.69 0.72 0.75 0.76 0.81 0.88 0.91 0.92 0.97 1.00
0.05 0.05 0.06 0.08 0.08 0.08 0.08 0.13 0.24 0.30 0.25 0.13 0.10 0.10 0.16 0.24 0.29 0.38 0.48 0.58 0.64 0.77 0.91 0.92 0.85 0.79 0.72 0.60 0.55 0.53 0.50 0.54 0.63 0.65 0.65 0.66 0.68 0.74 0.77 0.84 0.87 0.87 0.93
0.05 0.06 0.09 0.12 0.11 0.09 0.10 0.17 0.23 0.17 0.16 0.18 0.16 0.13 0.14 0.18 0.23 0.29 0.41 0.51 0.53 0.57 0.57 0.53 0.48 0.47 0.48 0.45 0.43 0.42 0.43 0.47 0.54 0.61 0.63 0.62 0.62 0.66 0.70 0.75 0.82 0.90 0.90
0.03 0.06 0.09 0.15 0.15 0.10 0.11 0.15 0.14 0.13 0.16 0.18 0.18 0.18 0.19 0.19 0.20 0.23 0.28 0.33 0.33 0.34 0.33 0.33 0.32 0.32 0.34 0.35 0.37 0.39 0.39 0.42 0.47 0.54 0.58 0.62 0.62 0.61 0.64 0.71 0.76 0.79 0.79
0.04 0.05 0.07 0.10 0.14 0.12 0.12 0.14 0.13 0.14 0.16 0.17 0.16 0.17 0.20 0.23 0.24 0.24 0.23 0.23 0.25 0.27 0.29 0.29 0.28 0.30 0.33 0.34 0.37 0.41 0.44 0.47 0.48 0.56 0.57 0.59 0.63 0.64 0.65 0.68 0.72 0.72 0.75
0.04 0.05 0.06 0.09 0.11 0.11 0.12 0.14 0.16 0.14 0.13 0.15 0.16 0.17 0.19 0.24 0.24 0.23 0.21 0.21 0.22 0.24 0.30 0.34 0.34 0.35 0.35 0.37 0.41 0.45 0.47 0.49 0.52 0.56 0.62 0.64 0.64 0.64 0.66 0.68 0.72 0.74 0.75
0.05 0.06 0.06 0.08 0.09 0.09 0.09 0.10 0.15 0.16 0.15 0.16 0.17 0.17 0.19 0.21 0.23 0.26 0.26 0.26 0.29 0.32 0.31 0.33 0.37 0.38 0.37 0.38 0.42 0.49 0.54 0.55 0.58 0.63 0.69 0.70 0.66 0.65 0.68 0.67 0.69 0.73 0.75
0.06 0.06 0.06 0.08 0.09 0.09 0.10 0.11 0.12 0.14 0.17 0.21 0.21 0.20 0.21 0.24 0.26 0.25 0.25 0.32 0.34 0.33 0.33 0.33 0.35 0.39 0.40 0.42 0.44 0.47 0.50 0.54 0.59 0.64 0.69 0.73 0.71 0.67 0.70 0.75 0.76 0.78 0.83
0.08 0.08 0.08 0.10 0.12 0.13 0.15 0.16 0.16 0.17 0.20 0.24 0.23 0.23 0.22 0.22 0.24 0.23 0.24 0.29 0.32 0.32 0.32 0.33 0.35 0.38 0.40 0.42 0.45 0.47 0.53 0.57 0.60 0.63 0.67 0.74 0.75 0.75 0.75 0.81 0.87 0.89 0.93
0.12 0.13 0.14 0.15 0.17 0.19 0.20 0.21 0.22 0.22 0.23 0.23 0.23 0.25 0.26 0.26 0.27 0.27 0.27 0.29 0.31 0.33 0.33 0.34 0.35 0.37 0.38 0.39 0.44 0.51 0.55 0.53 0.55 0.61 0.66 0.75 0.83 0.84 0.85 0.86 0.87 0.91 0.94

GEFSGL_prec_meanprecacc_216.txt.gz
Total_Precipitation_Accumulation
1.15 1.15 1.14 1.10 0.99 0.98 1.03 1.03 1.01 1.00 1.03 1.02 0.93 0.87 0.94 0.94 0.91 0.97 1.03 1.10 1.17 1.31 1.45 1.58 1.73 1.99 2.30 2.31 2.24 2.11 1.99 1.85 1.64 1.48 1.28 1.20 1.52 1.62 1.53 1.41 1.38 1.33 1.08
1.07 1.08 1.08 0.98 0.91 0.88 0.86 0.83 0.73 0.69 0.70 0.80 0.88 0.83 0.82 0.85 0.87 0.93 0.96 1.00 1.03 1.12 1.22 1.35 1.53 1.81 2.16 2.37 2.44 2.32 2.16 2.01 1.89 1.73 1.41 1.17 1.29 1.63 1.77 1.71 1.47 1.29 1.16
1.13 0.98 0.88 0.84 0.81 0.80 0.72 0.68 0.65 0.57 0.55 0.59 0.68 0.68 0.78 0.86 0.88 0.90 0.91 0.95 0.97 1.05 1.20 1.25 1.31 1.50 1.70 1.91 2.09 2.21 2.20 2.17 2.16 1.92 1.60 1.34 1.27 1.41 1.66 1.68 1.60 1.55 1.32
1.22 1.11 0.96 0.86 0.80 0.76 0.70 0.68 0.64 0.60 0.61 0.66 0.77 0.80 0.75 0.73 0.78 0.89 0.92 0.88 0.86 0.89 0.98 1.08 1.17 1.22 1.37 1.51 1.63 1.82 2.04 2.28 2.35 2.20 1.93 1.60 1.48 1.37 1.48 1.63 1.70 1.66 1.57
1.19 1.19 1.04 0.96 0.89 0.76 0.70 0.70 0.67 0.71 0.68 0.70 0.79 0.89 0.94 0.88 0.85 0.93 0.89 0.87 0.87 0.85 0.89 0.90 0.97 0.99 1.05 1.23 1.28 1.51 1.84 2.10 2.22 2.29 2.16 1.85 1.58 1.40 1.20 1.30 1.56 1.78 1.80
0.84 0.93 0.90 0.81 0.71 0.67 0.66 0.63 0.60 0.59 0.55 0.55 0.58 0.65 0.74 0.78 0.98 0.93 0.77 0.72 0.78 0.84 0.88 0.88 0.89 0.84 0.82 0.89 1.02 1.15 1.46 1.67 1.81 1.89 1.91 1.76 1.53 1.40 1.35 1.32 1.39 1.54 1.60
0.56 0.67 0.67 0.61 0.54 0.51 0.54 0.53 0.49 0.44 0.45 0.43 0.43 0.43 0.49 0.64 0.72 0.57 0.54 0.59 0.73 0.84 0.92 0.94 0.90 0.84 0.89 0.90 0.92 0.93 1.00 1.18 1.39 1.60 1.63 1.53 1.59 1.50 1.42 1.32 1.33 1.35 1.33
0.32 0.39 0.41 0.40 0.38 0.38 0.39 0.40 0.39 0.38 0.37 0.36 0.42 0.48 0.49 0.51 0.59 0.48 0.46 0.56 0.75 0.88 0.89 0.84 0.91 0.92 0.94 1.01 0.94 1.01 0.97 0.95 1.04 1.09 1.22 1.43 1.58 1.74 1.72 1.61 1.61 1.55 1.46
0.15 0.18 0.20 0.21 0.25 0.29 0.31 0.35 0.43 0.45 0.42 0.42 0.51 0.58 0.52 0.46 0.52 0.52 0.56 0.70 0.82 0.90 0.87 0.87 0.94 0.98 1.11 1.16 1.07 1.12 1.08 1.05 1.02 1.13 1.22 1.33 1.41 1.53 1.68 1.72 1.68 1.64 1.50
0.09 0.10 0.12 0.14 0.17 0.21 0.25 0.28 0.29 0.30 0.35 0.42 0.44 0.42 0.42 0.49 0.56 0.54 0.65 0.83 0.95 1.05 1.01 1.00 1.18 1.13 1.11 1.06 1.04 1.19 1.15 1.01 0.94 0.98 1.04 1.12 1.16 1.25 1.38 1.43 1.56 1.63 1.53
0.10 0.12 0.14 0.14 0.15 0.16 0.14 0.11 0.14 0.19 0.21 0.22 0.24 0.29 0.36 0.51 0.56 0.59 0.78 0.87 0.94 1.08 1.10 1.06 1.00 1.13 1.07 1.00 0.99 1.05 1.18 1.07 1.00 1.04 1.04 1.04 1.06 1.10 1.14 1.20 1.32 1.45 1.50
0.09 0.10 0.11 0.10 0.09 0.09 0.09 0.08 0.09 0.12 0.14 0.17 0.20 0.26 0.32 0.38 0.44 0.51 0.64 0.76 0.85 1.01 1.09 0.99 0.89 1.12 1.08 0.99 0.91 0.93 1.08 1.15 1.14 1.18 1.16 1.08 1.00 0.96 0.95 1.02 1.11 1.22 1.32
0.09 0.10 0.10 0.09 0.10 0.08 0.07 0.07 0.08 0.09 0.11 0.13 0.17 0.24 0.34 0.38 0.39 0.46 0.52 0.61 0.73 0.90 0.95 0.97 0.98 1.02 0.94 0.90 0.98 1.01 1.04 1.07 1.16 1.21 1.10 0.95 0.88 0.86 0.92 1.04 1.15 1.24 1.31
0.09 0.09 0.10 0.10 0.11 0.09 0.08 0.08 0.08 0.07 0.10 0.13 0.20 0.27 0.32 0.36 0.39 0.50 0.59 0.61 0.69 0.76 0.77 0.80 0.84 0.81 0.80 0.84 0.91 1.00 1.05 1.11 1.12 1.06 0.95 0.83 0.83 0.89 0.91 0.95 1.08 1.21 1.34
0.07 0.09 0.09 0.12 0.12 0.09 0.07 0.07 0.08 0.08 0.11 0.16 0.20 0.24 0.25 0.28 0.35 0.46 0.62 0.71 0.81 0.89 0.89 0.79 0.80 0.80 0.78 0.78 0.82 0.86 0.91 0.92 0.95 0.93 0.89 0.88 0.87 0.89 0.90 0.89 0.98 1.05 1.06
0.06 0.07 0.08 0.08 0.08 0.08 0.09 0.08 0.08 0.08 0.09 0.11 0.11 0.14 0.21 0.25 0.24 0.28 0.41 0.58 0.76 1.01 1.23 1.18 1.15 1.07 0.98 0.88 0.81 0.76 0.75 0.76 0.79 0.84 0.85 0.84 0.84 0.89 0.95 0.96 1.00 1.05 1.03
0.05 0.06 0.06 0.06 0.06 0.07 0.09 0.13 0.14 0.12 0.09 0.07 0.08 0.12 0.19 0.24 0.23 0.28 0.36 0.43 0.55 0.87 1.25 1.23 1.21 1.06 0.93 0.86 0.75 0.65 0.60 0.63 0.70 0.71 0.73 0.77 0.78 0.83 0.90 0.92 0.93 0.98 1.01
0.05 0.05 0.06 0.08 0.08 0.08 0.09 0.14 0.25 0.31 0.25 0.14 0.11 0.12 0.17 0.25 0.31 0.39 0.50 0.59 0.64 0.78 0.92 0.93 0.86 0.80 0.74 0.62 0.57 0.55 0.52 0.56 0.65 0.67 0.68 0.68 0.70 0.75 0.78 0.86 0.88 0.89 0.94
0.05 0.06 0.09 0.12 0.12 0.10 0.11 0.18 0.24 0.19 0.17 0.19 0.17 0.14 0.15 0.19 0.24 0.31 0.43 0.53 0.54 0.58 0.58 0.54 0.49 0.49 0.49 0.46 0.45 0.44 0.45 0.49 0.56 0.63 0.66 0.64 0.64 0.67 0.72 0.76 0.83 0.92 0.92
0.03 0.06 0.09 0.15 0.16 0.11 0.12 0.16 0.15 0.14 0.17 0.19 0.19 0.18 0.20 0.20 0.21 0.24 0.31 0.35 0.35 0.35 0.34 0.34 0.33 0.33 0.36 0.37 0.39 0.41 0.41 0.45 0.50 0.56 0.60 0.65 0.65 0.64 0.66 0.73 0.77 0.80 0.80
0.04 0.05 0.07 0.11 0.14 0.12 0.13 0.15 0.14 0.15 0.17 0.17 0.17 0.18 0.21 0.24 0.25 0.25 0.25 0.25 0.27 0.29 0.30 0.31 0.29 0.31 0.35 0.36 0.40 0.43 0.47 0.49 0.51 0.58 0.60 0.62 0.66 0.67 0.67 0.70 0.74 0.74 0.77
0.05 0.06 0.07 0.10 0.12 0.12 0.13 0.15 0.17 0.15 0.14 0.16 0.17 0.18 0.20 0.24 0.24 0.24 0.23 0.23 0.23 0.25 0.31 0.35 0.36 0.37 0.37 0.39 0.44 0.48 0.50 0.52 0.54 0.58 0.64 0.66 0.66 0.67 0.68 0.70 0.74 0.76 0.77
0.06 0.07 0.07 0.08 0.10 0.09 0.09 0.11 0.15 0.17 0.16 0.17 0.18 0.18 0.19 0.22 0.23 0.26 0.27 0.28 0.31 0.34 0.33 0.34 0.39 0.40 0.39 0.40 0.44 0.50 0.56 0.57 0.59 0.64 0.71 0.71 0.68 0.67 0.70 0.70 0.72 0.76 0.78
0.07 0.06 0.07 0.08 0.09 0.10 0.10 0.11 0.13 0.14 0.18 0.21 0.22 0.21 0.22 0.25 0.27 0.25 0.26 0.32 0.35 0.35 0.35 0.35 0.37 0.41 0.42 0.44 0.46 0.49 0.51 0.55 0.61 0.66 0.71 0.75 0.73 0.70 0.72 0.77 0.77 0.80 0.85
0.09 0.09 0.09 0.10 0.13 0.14 0.15 0.17 0.17 0.17 0.21 0.25 0.23 0.23 0.22 0.23 0.25 0.25 0.26 0.30 0.33 0.33 0.34 0.35 0.37 0.39 0.42 0.43 0.46 0.48 0.54 0.59 0.62 0.65 0.69 0.76 0.78 0.77 0.77 0.83 0.89 0.91 0.95
0.13 0.14 0.14 0.15 0.17 0.19 0.20 0.21 0.23 0.23 0.24 0.23 0.23 0.25 0.26 0.27 0.28 0.28 0.28 0.30 0.33 0.34 0.34 0.36 0.37 0.39 0.39 0.41 0.45 0.52 0.56 0.55 0.57 0.63 0.69 0.78 0.86 0.87 0.88 0.89 0.89 0.92 0.96

GEFSGL_prec_meanprecacc_222.txt.gz
Total_Precipitation_Accumulation
1.16 1.16 1.14 1.10 0.99 0.99 1.04 1.04 1.03 1.01 1.05 1.03 0.94 0.88 0.95 0.96 0.92 0.98 1.05 1.12 1.19 1.32 1.46 1.58 1.74 2.00 2.30 2.31 2.25 2.11 1.99 1.86 1.65 1.49 1.29 1.21 1.52 1.63 1.54 1.43 1.41 1.36 1.10
1.07 1.09 1.08 0.98 0.91 0.88 0.87 0.83 0.73 0.70 0.72 0.81 0.89 0.84 0.82 0.86 0.88 0.94 0.96 1.01 1.04 1.13 1.22 1.35 1.53 1.82 2.16 2.37 2.45 2.33 2.16 2.02 1.90 1.75 1.42 1.19 1.30 1.64 1.77 1.71 1.49 1.32 1.18
1.13 0.98 0.88 0.84 0.81 0.80 0.72 0.68 0.65 0.57 0.56 0.59 0.69 0.69 0.78 0.86 0.88 0.90 0.92 0.95 0.98 1.05 1.20 1.26 1.31 1.50 1.70 1.91 2.10 2.22 2.20 2.17 2.16 1.93 1.62 1.36 1.28 1.41 1.66 1.69 1.60 1.56 1.33
1.22 1.11 0.96 0.87 0.80 0.77 0.70 0.68 0.64 0.61 0.62 0.67 0.78 0.81 0.76 0.74 0.79 0.89 0.93 0.88 0.86 0.89 0.98 1.08 1.17 1.22 1.38 1.52 1.63 1.83 2.04 2.28 2.36 2.21 1.94 1.61 1.49 1.38 1.48 1.64 1.71 1.66 1.58
1.20 1.20 1.04 0.97 0.90 0.77 0.71 0.70 0.67 0.71 0.69 0.71 0.80 0.89 0.94 0.89 0.86 0.94 0.90 0.87 0.87 0.85 0.90 0.90 0.97 0.99 1.06 1.24 1.29 1.52 1.84 2.11 2.22 2.29 2.16 1.85 1.59 1.41 1.20 1.31 1.57 1.79 1.80
0.85 0.93 0.90 0.81 0.71 0.67 0.66 0.64 0.60 0.59 0.56 0.55 0.59 0.65 0.74 0.78 0.99 0.94 0.77 0.73 0.78 0.84 0.89 0.88 0.90 0.84 0.83 0.89 1.02 1.15 1.46 1.67 1.82 1.90 1.91 1.76 1.54 1.41 1.36 1.32 1.39 1.54 1.60
0.57 0.67 0.67 0.62 0.55 0.52 0.55 0.53 0.49 0.44 0.45 0.43 0.43 0.44 0.49 0.65 0.73 0.57 0.55 0.60 0.74 0.85 0.92 0.94 0.90 0.85 0.89 0.90 0.92 0.93 1.00 1.18 1.40 1.60 1.63 1.54 1.59 1.51 1.43 1.32 1.33 1.35 1.34
0.32 0.39 0.41 0.40 0.39 0.39 0.40 0.40 0.40 0.38 0.38 0.36 0.42 0.48 0.50 0.52 0.59 0.49 0.47 0.56 0.75 0.89 0.89 0.85 0.91 0.92 0.95 1.01 0.94 1.01 0.97 0.95 1.04 1.09 1.23 1.43 1.58 1.75 1.72 1.62 1.62 1.55 1.46
0.16 0.18 0.20 0.22 0.26 0.30 0.32 0.35 0.44 0.45 0.42 0.42 0.51 0.58 0.52 0.46 0.52 0.53 0.56 0.70 0.82 0.90 0.87 0.87 0.94 0.99 1.11 1.16 1.07 1.12 1.09 1.06 1.03 1.13 1.22 1.33 1.41 1.53 1.69 1.72 1.68 1.65 1.51
0.10 0.10 0.13 0.15 0.17 0.21 0.26 0.29 0.30 0.31 0.36 0.42 0.44 0.42 0.42 0.49 0.56 0.54 0.66 0.83 0.95 1.05 1.01 1.00 1.18 1.13 1.12 1.06 1.04 1.19 1.16 1.02 0.94 0.98 1.04 1.13 1.16 1.26 1.39 1.44 1.56 1.63 1.55
0.11 0.12 0.14 0.15 0.15 0.16 0.14 0.12 0.14 0.19 0.21 0.23 0.24 0.30 0.37 0.52 0.56 0.59 0.78 0.87 0.94 1.09 1.11 1.07 1.01 1.14 1.08 1.00 0.99 1.05 1.18 1.07 1.00 1.04 1.04 1.05 1.07 1.11 1.15 1.21 1.33 1.46 1.51
0.10 0.11 0.13 0.11 0.10 0.10 0.10 0.09 0.09 0.12 0.15 0.18 0.21 0.26 0.32 0.38 0.45 0.51 0.64 0.76 0.85 1.02 1.10 1.00 0.90 1.12 1.08 0.99 0.91 0.93 1.08 1.15 1.15 1.18 1.17 1.08 1.00 0.98 0.97 1.03 1.11 1.23 1.33
0.10 0.11 0.12 0.12 0.12 0.09 0.08 0.08 0.09 0.10 0.12 0.15 0.19 0.25 0.34 0.38 0.40 0.47 0.53 0.62 0.74 0.91 0.97 0.97 0.99 1.02 0.94 0.90 0.98 1.01 1.04 1.07 1.16 1.21 1.10 0.96 0.89 0.87 0.94 1.05 1.16 1.25 1.32
0.10 0.11 0.12 0.13 0.14 0.11 0.09 0.09 0.08 0.08 0.11 0.15 0.22 0.28 0.33 0.37 0.40 0.51 0.60 0.62 0.71 0.78 0.78 0.81 0.84 0.81 0.80 0.85 0.91 1.00 1.06 1.11 1.13 1.07 0.96 0.84 0.84 0.90 0.92 0.96 1.09 1.23 1.36
0.09 0.11 0.11 0.14 0.15 0.12 0.09 0.08 0.09 0.09 0.12 0.18 0.21 0.25 0.26 0.28 0.36 0.48 0.63 0.72 0.82 0.90 0.90 0.80 0.80 0.80 0.78 0.78 0.83 0.87 0.92 0.93 0.96 0.94 0.90 0.89 0.88 0.91 0.91 0.90 1.00 1.07 1.08
0.10 0.10 0.10 0.10 0.10 0.11 0.11 0.09 0.09 0.09 0.10 0.12 0.13 0.16 0.22 0.26 0.25 0.29 0.42 0.59 0.77 1.02 1.24 1.18 1.16 1.08 0.98 0.88 0.81 0.77 0.76 0.77 0.81 0.85 0.86 0.85 0.86 0.91 0.96 0.97 1.01 1.07 1.06
0.07 0.08 0.08 0.08 0.07 0.08 0.10 0.14 0.15 0.12 0.09 0.08 0.09 0.13 0.19 0.25 0.23 0.29 0.37 0.43 0.55 0.87 1.25 1.24 1.21 1.07 0.93 0.86 0.76 0.66 0.62 0.64 0.72 0.73 0.75 0.79 0.80 0.85 0.91 0.94 0.95 1.00 1.03
0.06 0.05 0.07 0.10 0.10 0.09 0.10 0.15 0.26 0.31 0.26 0.15 0.12 0.13 0.18 0.26 0.31 0.40 0.50 0.59 0.64 0.78 0.92 0.93 0.86 0.81 0.74 0.62 0.58 0.56 0.53 0.57 0.66 0.69 0.69 0.70 0.72 0.77 0.80 0.88 0.91 0.91 0.96
0.06 0.07 0.10 0.13 0.13 0.12 0.12 0.19 0.25 0.19 0.18 0.20 0.18 0.15 0.17 0.20 0.24 0.31 0.43 0.53 0.54 0.58 0.58 0.54 0.49 0.49 0.49 0.46 0.45 0.45 0.46 0.50 0.57 0.65 0.67 0.66 0.67 0.71 0.75 0.79 0.87 0.95 0.95
0.04 0.07 0.10 0.16 0.17 0.12 0.13 0.17 0.16 0.15 0.18 0.20 0.20 0.19 0.20 0.21 0.21 0.25 0.31 0.35 0.35 0.36 0.35 0.34 0.33 0.34 0.36 0.37 0.40 0.42 0.42 0.45 0.51 0.57 0.62 0.67 0.67 0.67 0.70 0.77 0.81 0.84 0.84
0.05 0.06 0.08 0.12 0.15 0.13 0.14 0.16 0.15 0.16 0.18 0.18 0.18 0.19 0.22 0.25 0.25 0.26 0.26 0.25 0.27 0.29 0.31 0.31 0.29 0.32 0.36 0.37 0.40 0.44 0.48 0.50 0.52 0.60 0.62 0.64 0.68 0.70 0.70 0.73 0.77 0.77 0.79
0.06 0.06 0.07 0.10 0.12 0.13 0.13 0.16 0.18 0.16 0.15 0.17 0.18 0.19 0.21 0.25 0.25 0.25 0.24 0.25 0.24 0.26 0.32 0.36 0.37 0.38 0.38 0.40 0.45 0.49 0.51 0.53 0.56 0.60 0.66 0.68 0.68 0.69 0.71 0.72 0.77 0.79 0.79
0.07 0.07 0.07 0.09 0.10 0.10 0.10 0.12 0.16 0.18 0.17 0.18 0.19 0.19 0.21 0.23 0.24 0.27 0.28 0.29 0.32 0.35 0.34 0.35 0.40 0.42 0.40 0.41 0.45 0.51 0.56 0.58 0.61 0.66 0.73 0.73 0.70 0.70 0.72 0.72 0.74 0.78 0.80
0.08 0.07 0.08 0.09 0.10 0.11 0.11 0.12 0.14 0.15 0.18 0.22 0.22 0.21 0.23 0.26 0.28 0.27 0.27 0.33 0.36 0.36 0.36 0.36 0.38 0.42 0.43 0.44 0.46 0.49 0.52 0.56 0.62 0.67 0.73 0.77 0.76 0.73 0.75 0.80 0.80 0.82 0.87
0.10 0.09 0.09 0.11 0.14 0.15 0.16 0.18 0.18 0.18 0.21 0.25 0.24 0.24 0.23 0.24 0.26 0.26 0.27 0.31 0.34 0.33 0.35 0.36 0.38 0.40 0.42 0.44 0.47 0.49 0.56 0.60 0.63 0.66 0.70 0.78 0.81 0.80 0.80 0.86 0.91 0.93 0.97
0.13 0.14 0.15 0.16 0.18 0.20 0.21 0.22 0.23 0.24 0.24 0.24 0.23 0.25 0.27 0.27 0.28 0.28 0.29 0.31 0.33 0.34 0.35 0.37 0.38 0.40 0.40 0.41 0.46 0.54 0.58 0.56 0.59 0.65 0.71 0.80 0.88 0.90 0.91 0.92 0.92 0.95 0.98

GEFSGL_prec_meanprecacc_228.txt.gz
Total_Precipitation_Accumulation
1.18 1.17 1.15 1.11 1.01 1.00 1.05 1.05 1.03 1.03 1.07 1.05 0.95 0.88 0.96 0.97 0.94 1.00 1.07 1.14 1.20 1.33 1.46 1.59 1.74 2.00 2.30 2.31 2.25 2.11 1.99 1.86 1.66 1.50 1.29 1.22 1.53 1.63 1.56 1.45 1.42 1.38 1.14
1.10 1.11 1.09 0.98 0.92 0.89 0.87 0.83 0.73 0.70 0.73 0.82 0.91 0.85 0.83 0.87 0.90 0.95 0.98 1.02 1.05 1.14 1.23 1.36 1.54 1.82 2.16 2.37 2.45 2.33 2.16 2.02 1.90 1.76 1.43 1.20 1.32 1.65 1.78 1.72 1.52 1.37 1.23
1.15 1.00 0.89 0.85 0.82 0.81 0.73 0.69 0.65 0.58 0.57 0.60 0.70 0.70 0.79 0.88 0.90 0.92 0.93 0.96 0.99 1.07 1.21 1.26 1.31 1.51 1.71 1.91 2.10 2.22 2.20 2.18 2.16 1.93 1.63 1.37 1.30 1.42 1.67 1.69 1.62 1.61 1.38
1.24 1.13 0.98 0.88 0.81 0.78 0.71 0.68 0.64 0.62 0.63 0.68 0.79 0.81 0.76 0.75 0.80 0.91 0.94 0.90 0.87 0.90 0.99 1.08 1.18 1.22 1.38 1.52 1.64 1.83 2.04 2.29 2.36 2.21 1.94 1.62 1.49 1.38 1.48 1.64 1.71 1.67 1.59
1.22 1.21 1.06 0.98 0.91 0.78 0.71 0.71 0.69 0.73 0.70 0.71 0.80 0.90 0.95 0.89 0.86 0.94 0.91 0.89 0.89 0.86 0.90 0.91 0.98 1.00 1.06 1.25 1.29 1.52 1.85 2.11 2.22 2.29 2.16 1.85 1.59 1.41 1.20 1.31 1.57 1.80 1.81
0.88 0.96 0.92 0.82 0.72 0.68 0.67 0.65 0.62 0.62 0.57 0.56 0.59 0.66 0.75 0.79 0.99 0.94 0.78 0.74 0.79 0.85 0.90 0.89 0.91 0.85 0.83 0.89 1.03 1.16 1.46 1.67 1.82 1.90 1.92 1.76 1.54 1.41 1.36 1.32 1.40 1.55 1.60
0.59 0.68 0.68 0.62 0.56 0.53 0.56 0.55 0.51 0.45 0.46 0.44 0.44 0.44 0.50 0.65 0.74 0.58 0.56 0.61 0.74 0.86 0.93 0.95 0.91 0.85 0.89 0.90 0.92 0.93 1.00 1.18 1.40 1.60 1.63 1.54 1.59 1.51 1.43 1.33 1.34 1.36 1.34
0.35 0.41 0.42 0.41 0.41 0.41 0.42 0.42 0.40 0.39 0.38 0.37 0.42 0.49 0.50 0.52 0.60 0.50 0.48 0.56 0.75 0.89 0.89 0.85 0.91 0.92 0.95 1.01 0.94 1.01 0.97 0.95 1.04 1.09 1.23 1.43 1.58 1.75 1.73 1.62 1.63 1.56 1.47
0.18 0.20 0.22 0.23 0.27 0.32 0.33 0.37 0.45 0.46 0.43 0.43 0.52 0.59 0.53 0.47 0.53 0.53 0.57 0.70 0.82 0.90 0.87 0.87 0.94 0.99 1.12 1.17 1.07 1.13 1.09 1.06 1.03 1.13 1.22 1.33 1.42 1.54 1.69 1.73 1.69 1.66 1.51
0.11 0.11 0.14 0.16 0.19 0.23 0.28 0.31 0.32 0.32 0.37 0.44 0.45 0.43 0.44 0.51 0.59 0.56 0.66 0.83 0.96 1.05 1.01 1.00 1.18 1.14 1.12 1.07 1.04 1.19 1.16 1.02 0.94 0.98 1.04 1.13 1.17 1.26 1.40 1.45 1.58 1.65 1.56
0.12 0.13 0.15 0.17 0.17 0.19 0.17 0.14 0.16 0.21 0.23 0.25 0.26 0.31 0.39 0.53 0.58 0.61 0.79 0.88 0.95 1.09 1.11 1.07 1.01 1.14 1.08 1.00 0.99 1.05 1.19 1.07 1.00 1.04 1.04 1.05 1.07 1.11 1.15 1.22 1.34 1.47 1.52
0.10 0.12 0.13 0.12 0.12 0.13 0.13 0.11 0.11 0.15 0.18 0.21 0.23 0.28 0.33 0.39 0.46 0.52 0.65 0.77 0.86 1.03 1.10 1.00 0.90 1.13 1.08 0.99 0.91 0.93 1.08 1.15 1.15 1.18 1.17 1.08 1.01 0.98 0.97 1.03 1.13 1.24 1.33
0.10 0.12 0.13 0.12 0.12 0.10 0.09 0.10 0.11 0.13 0.16 0.19 0.23 0.29 0.36 0.39 0.41 0.49 0.54 0.62 0.75 0.92 0.97 0.99 1.00 1.03 0.94 0.90 0.99 1.02 1.04 1.07 1.16 1.22 1.11 0.96 0.89 0.88 0.95 1.06 1.17 1.26 1.33
0.11 0.11 0.12 0.14 0.15 0.11 0.10 0.10 0.10 0.11 0.14 0.18 0.25 0.31 0.36 0.40 0.42 0.53 0.63 0.64 0.73 0.81 0.80 0.82 0.86 0.82 0.81 0.85 0.91 1.01 1.06 1.11 1.13 1.07 0.97 0.84 0.85 0.91 0.94 0.98 1.11 1.24 1.36
0.10 0.12 0.12 0.15 0.16 0.13 0.10 0.09 0.10 0.10 0.14 0.19 0.23 0.28 0.30 0.32 0.38 0.50 0.65 0.74 0.84 0.92 0.92 0.82 0.81 0.80 0.79 0.79 0.83 0.87 0.93 0.94 0.97 0.94 0.91 0.90 0.88 0.91 0.92 0.92 1.01 1.08 1.09
0.12 0.12 0.12 0.11 0.11 0.13 0.14 0.11 0.10 0.10 0.12 0.13 0.14 0.18 0.24 0.29 0.29 0.32 0.44 0.60 0.78 1.03 1.25 1.19 1.16 1.09 0.99 0.89 0.82 0.78 0.76 0.78 0.81 0.86 0.87 0.86 0.87 0.92 0.97 0.98 1.02 1.08 1.07
0.09 0.10 0.10 0.10 0.09 0.09 0.12 0.17 0.18 0.14 0.10 0.08 0.09 0.14 0.20 0.27 0.26 0.31 0.38 0.44 0.56 0.88 1.26 1.24 1.21 1.07 0.94 0.87 0.77 0.67 0.62 0.65 0.73 0.73 0.76 0.79 0.80 0.85 0.92 0.95 0.96 1.01 1.04
0.08 0.08 0.09 0.11 0.11 0.10 0.11 0.17 0.29 0.34 0.28 0.16 0.13 0.14 0.19 0.27 0.33 0.41 0.51 0.59 0.64 0.78 0.92 0.93 0.86 0.81 0.74 0.62 0.58 0.56 0.53 0.58 0.67 0.69 0.70 0.71 0.73 0.78 0.81 0.88 0.91 0.93 0.98
0.08 0.09 0.13 0.17 0.15 0.13 0.14 0.21 0.28 0.21 0.19 0.21 0.19 0.16 0.18 0.21 0.26 0.33 0.44 0.53 0.54 0.58 0.59 0.54 0.49 0.49 0.50 0.47 0.45 0.45 0.46 0.50 0.57 0.65 0.68 0.67 0.68 0.72 0.76 0.80 0.88 0.97 0.98
0.06 0.10 0.13 0.21 0.20 0.14 0.15 0.19 0.17 0.16 0.18 0.20 0.20 0.19 0.21 0.22 0.23 0.26 0.32 0.36 0.35 0.36 0.35 0.34 0.34 0.34 0.37 0.38 0.40 0.42 0.43 0.46 0.51 0.58 0.62 0.67 0.68 0.68 0.71 0.78 0.83 0.87 0.86
0.07 0.09 0.11 0.16 0.19 0.15 0.15 0.17 0.16 0.16 0.18 0.19 0.18 0.19 0.22 0.25 0.27 0.28 0.27 0.26 0.28 0.30 0.31 0.32 0.30 0.32 0.37 0.38 0.41 0.45 0.49 0.51 0.53 0.60 0.62 0.64 0.69 0.70 0.71 0.74 0.78 0.79 0.81
0.08 0.10 0.11 0.13 0.15 0.15 0.15 0.17 0.18 0.16 0.15 0.17 0.18 0.19 0.22 0.26 0.26 0.26 0.26 0.26 0.26 0.27 0.33 0.37 0.38 0.39 0.38 0.41 0.46 0.50 0.51 0.53 0.56 0.60 0.66 0.68 0.68 0.69 0.71 0.73 0.77 0.80 0.81
0.10 0.11 0.11 0.12 0.13 0.12 0.12 0.13 0.16 0.18 0.17 0.18 0.20 0.20 0.22 0.24 0.25 0.28 0.30 0.31 0.34 0.36 0.35 0.36 0.41 0.42 0.41 0.42 0.45 0.52 0.57 0.58 0.61 0.66 0.73 0.74 0.70 0.70 0.73 0.73 0.75 0.79 0.81
0.11 0.11 0.11 0.12 0.13 0.13 0.13 0.13 0.14 0.15 0.19 0.23 0.23 0.22 0.24 0.28 0.29 0.28 0.28 0.35 0.37 0.37 0.37 0.37 0.39 0.42 0.44 0.45 0.47 0.50 0.53 0.57 0.63 0.68 0.73 0.78 0.77 0.74 0.76 0.81 0.81 0.83 0.89
0.12 0.12 0.12 0.14 0.16 0.17 0.18 0.19 0.19 0.19 0.22 0.27 0.25 0.25 0.24 0.25 0.27 0.26 0.27 0.32 0.35 0.35 0.36 0.37 0.38 0.41 0.43 0.45 0.48 0.50 0.56 0.61 0.64 0.67 0.71 0.79 0.81 0.81 0.81 0.87 0.92 0.94 0.98
0.15 0.16 0.17 0.18 0.20 0.21 0.22 0.23 0.24 0.25 0.25 0.25 0.24 0.26 0.28 0.28 0.29 0.29 0.30 0.32 0.35 0.35 0.35 0.37 0.39 0.40 0.41 0.42 0.47 0.54 0.58 0.57 0.59 0.66 0.71 0.81 0.89 0.91 0.91 0.93 0.93 0.96 1.00

GEFSGL_prec_meanprecacc_234.txt.gz
Total_Precipitation_Accumulation
1.21 1.19 1.16 1.13 1.03 1.02 1.06 1.06 1.04 1.04 1.08 1.06 0.96 0.89 0.98 0.98 0.94 1.01 1.07 1.15 1.21 1.34 1.47 1.59 1.75 2.01 2.31 2.32 2.25 2.12 1.99 1.86 1.66 1.50 1.29 1.23 1.53 1.64 1.56 1.45 1.42 1.38 1.15
1.12 1.13 1.09 0.99 0.93 0.90 0.89 0.85 0.74 0.71 0.74 0.83 0.92 0.86 0.84 0.88 0.91 0.97 0.99 1.03 1.07 1.16 1.25 1.38 1.55 1.83 2.17 2.38 2.45 2.33 2.17 2.02 1.90 1.76 1.43 1.20 1.32 1.65 1.78 1.72 1.52 1.38 1.23
1.16 1.02 0.91 0.86 0.83 0.82 0.74 0.69 0.66 0.58 0.57 0.62 0.71 0.71 0.80 0.89 0.91 0.94 0.95 0.98 1.01 1.10 1.24 1.29 1.34 1.52 1.71 1.92 2.11 2.23 2.21 2.18 2.17 1.94 1.63 1.37 1.30 1.42 1.67 1.69 1.62 1.61 1.39
1.24 1.14 0.99 0.89 0.83 0.79 0.72 0.69 0.65 0.63 0.64 0.69 0.80 0.82 0.77 0.76 0.81 0.93 0.96 0.92 0.90 0.94 1.01 1.11 1.20 1.24 1.39 1.53 1.65 1.84 2.05 2.29 2.37 2.21 1.95 1.62 1.49 1.38 1.48 1.64 1.71 1.67 1.59
1.23 1.22 1.07 0.99 0.93 0.79 0.72 0.71 0.69 0.73 0.71 0.72 0.81 0.91 0.96 0.90 0.87 0.96 0.92 0.90 0.91 0.89 0.92 0.93 1.00 1.01 1.07 1.25 1.30 1.53 1.85 2.12 2.22 2.29 2.16 1.85 1.59 1.41 1.20 1.31 1.57 1.80 1.81
0.88 0.96 0.92 0.83 0.73 0.69 0.68 0.66 0.63 0.62 0.58 0.57 0.60 0.66 0.75 0.80 1.00 0.96 0.79 0.75 0.80 0.86 0.91 0.90 0.92 0.86 0.83 0.90 1.03 1.16 1.46 1.68 1.82 1.90 1.92 1.76 1.54 1.41 1.36 1.33 1.40 1.55 1.60
0.59 0.69 0.68 0.63 0.56 0.54 0.57 0.55 0.51 0.46 0.47 0.44 0.44 0.45 0.51 0.66 0.75 0.59 0.57 0.61 0.75 0.86 0.93 0.95 0.91 0.85 0.89 0.90 0.92 0.93 1.00 1.18 1.40 1.60 1.63 1.54 1.59 1.51 1.43 1.33 1.34 1.36 1.34
0.35 0.41 0.43 0.42 0.41 0.41 0.42 0.42 0.41 0.40 0.39 0.38 0.43 0.50 0.51 0.53 0.61 0.51 0.48 0.57 0.76 0.89 0.89 0.85 0.92 0.93 0.95 1.01 0.94 1.01 0.97 0.95 1.04 1.09 1.23 1.43 1.58 1.75 1.73 1.62 1.63 1.56 1.47
0.18 0.21 0.22 0.23 0.27 0.32 0.33 0.37 0.45 0.47 0.44 0.44 0.54 0.61 0.55 0.49 0.54 0.54 0.58 0.71 0.83 0.91 0.87 0.87 0.94 0.99 1.12 1.17 1.07 1.13 1.09 1.06 1.03 1.13 1.22 1.33 1.42 1.54 1.69 1.73 1.69 1.66 1.52
0.11 0.11 0.15 0.17 0.19 0.23 0.28 0.31 0.32 0.33 0.39 0.46 0.47 0.45 0.45 0.52 0.60 0.57 0.67 0.84 0.96 1.06 1.01 1.00 1.19 1.14 1.12 1.07 1.05 1.19 1.16 1.02 0.94 0.98 1.04 1.13 1.17 1.26 1.40 1.45 1.58 1.65 1.56
0.13 0.14 0.16 0.17 0.18 0.20 0.17 0.15 0.17 0.22 0.25 0.26 0.28 0.33 0.40 0.54 0.59 0.62 0.80 0.88 0.95 1.09 1.11 1.07 1.01 1.15 1.09 1.01 1.00 1.05 1.19 1.07 1.01 1.04 1.04 1.05 1.07 1.11 1.15 1.22 1.35 1.48 1.53
0.11 0.13 0.14 0.13 0.12 0.14 0.13 0.11 0.12 0.15 0.19 0.22 0.25 0.29 0.35 0.40 0.47 0.53 0.66 0.78 0.87 1.03 1.11 1.02 0.91 1.14 1.09 1.00 0.91 0.93 1.08 1.15 1.15 1.19 1.17 1.09 1.01 0.98 0.97 1.03 1.13 1.24 1.34
0.11 0.13 0.14 0.14 0.13 0.11 0.09 0.10 0.11 0.13 0.16 0.20 0.24 0.30 0.38 0.42 0.42 0.50 0.55 0.63 0.76 0.94 0.99 1.00 1.01 1.04 0.95 0.90 0.99 1.02 1.05 1.07 1.17 1.22 1.11 0.96 0.90 0.89 0.96 1.07 1.18 1.27 1.33
0.11 0.12 0.13 0.15 0.16 0.12 0.11 0.11 0.10 0.11 0.14 0.19 0.26 0.32 0.37 0.42 0.44 0.55 0.65 0.66 0.75 0.82 0.81 0.83 0.87 0.83 0.82 0.86 0.92 1.01 1.06 1.12 1.14 1.08 0.97 0.85 0.85 0.92 0.95 0.99 1.13 1.26 1.39
0.11 0.13 0.13 0.16 0.18 0.14 0.11 0.10 0.11 0.11 0.16 0.21 0.25 0.30 0.31 0.34 0.41 0.53 0.68 0.77 0.88 0.96 0.95 0.83 0.83 0.82 0.80 0.80 0.84 0.88 0.93 0.94 0.98 0.95 0.92 0.91 0.90 0.93 0.94 0.93 1.03 1.10 1.11
0.12 0.13 0.13 0.12 0.13 0.14 0.15 0.12 0.11 0.11 0.13 0.15 0.16 0.19 0.25 0.30 0.31 0.35 0.47 0.63 0.81 1.07 1.29 1.23 1.19 1.10 1.01 0.90 0.84 0.79 0.77 0.79 0.82 0.87 0.88 0.87 0.88 0.93 0.98 0.99 1.03 1.09 1.08
0.09 0.10 0.11 0.11 0.09 0.10 0.13 0.18 0.18 0.15 0.11 0.10 0.10 0.15 0.21 0.28 0.27 0.33 0.40 0.46 0.58 0.89 1.27 1.26 1.22 1.08 0.95 0.88 0.79 0.68 0.64 0.66 0.75 0.74 0.77 0.80 0.81 0.86 0.92 0.95 0.97 1.02 1.05
0.08 0.08 0.10 0.12 0.11 0.11 0.12 0.18 0.30 0.35 0.28 0.17 0.13 0.14 0.20 0.28 0.34 0.42 0.52 0.61 0.66 0.79 0.93 0.94 0.87 0.82 0.75 0.63 0.58 0.56 0.53 0.58 0.68 0.70 0.71 0.72 0.74 0.79 0.81 0.89 0.92 0.94 0.99
0.09 0.10 0.14 0.18 0.16 0.14 0.15 0.23 0.29 0.23 0.22 0.23 0.20 0.17 0.19 0.22 0.26 0.33 0.45 0.54 0.55 0.59 0.59 0.55 0.50 0.49 0.50 0.47 0.46 0.45 0.47 0.51 0.58 0.66 0.68 0.67 0.68 0.72 0.77 0.81 0.88 0.98 0.98
0.07 0.10 0.15 0.22 0.22 0.15 0.16 0.20 0.19 0.19 0.22 0.24 0.23 0.22 0.23 0.23 0.24 0.27 0.33 0.36 0.36 0.36 0.35 0.35 0.35 0.35 0.38 0.38 0.41 0.43 0.44 0.47 0.52 0.59 0.63 0.68 0.68 0.68 0.72 0.79 0.83 0.87 0.87
0.09 0.10 0.13 0.19 0.22 0.17 0.16 0.18 0.17 0.17 0.21 0.22 0.21 0.22 0.24 0.27 0.29 0.29 0.29 0.28 0.30 0.32 0.33 0.33 0.31 0.34 0.38 0.39 0.42 0.46 0.49 0.52 0.54 0.61 0.63 0.65 0.69 0.71 0.72 0.75 0.79 0.79 0.82
0.10 0.11 0.12 0.15 0.18 0.17 0.16 0.18 0.19 0.18 0.17 0.18 0.20 0.21 0.23 0.26 0.27 0.27 0.27 0.27 0.27 0.29 0.35 0.38 0.39 0.40 0.40 0.42 0.46 0.50 0.52 0.54 0.57 0.61 0.67 0.69 0.69 0.70 0.72 0.74 0.78 0.80 0.81
0.11 0.13 0.13 0.14 0.15 0.15 0.15 0.15 0.18 0.19 0.18 0.19 0.21 0.21 0.22 0.24 0.25 0.29 0.30 0.31 0.35 0.37 0.36 0.37 0.42 0.43 0.42 0.43 0.46 0.52 0.58 0.59 0.62 0.67 0.74 0.75 0.71 0.71 0.74 0.74 0.75 0.80 0.82
0.12 0.13 0.14 0.14 0.15 0.15 0.16 0.16 0.17 0.17 0.20 0.24 0.24 0.23 0.25 0.28 0.30 0.28 0.29 0.35 0.38 0.38 0.38 0.38 0.39 0.43 0.45 0.46 0.48 0.51 0.53 0.57 0.63 0.69 0.74 0.79 0.78 0.75 0.77 0.82 0.82 0.84 0.90
0.13 0.14 0.15 0.16 0.18 0.19 0.20 0.21 0.21 0.21 0.23 0.28 0.26 0.25 0.24 0.25 0.27 0.27 0.28 0.32 0.36 0.36 0.36 0.38 0.39 0.42 0.44 0.46 0.49 0.51 0.57 0.62 0.65 0.68 0.72 0.80 0.83 0.82 0.82 0.88 0.94 0.95 0.99
0.16 0.18 0.19 0.20 0.22 0.23 0.24 0.25 0.26 0.26 0.26 0.25 0.25 0.27 0.28 0.29 0.30 0.30 0.30 0.33 0.35 0.36 0.37 0.39 0.40 0.42 0.42 0.44 0.49 0.57 0.61 0.59 0.61 0.67 0.73 0.82 0.90 0.92 0.93 0.94 0.94 0.98 1.02